JAL51 RJTT-YSSY

Flight info

Callsign JAL51
Flight time 8h 58m
Altitude 33000
Route VAMOS XAC B586 SABRI/N0492F350 B586 IPRET/N0493F340 B586 CADDY/N0495F330 B586 UKATA/N0493F340 28N140E 25N140E 20N140E 15N140E 10N140E/N0494F360 05N140E/N0494F350 DCT FACED/N0489F370 A216 CS Y177 AKROM Y153 ROKUU H652 BOREE
Aircraft B77W/H-SDE1E2E3FGHIJ2J3J4J5M1RWXY/LB1D1

Departure

Time 2026-05-07 11:36
Airport Tokyo Haneda International Airport (RJTT)

Arrival

Time 2026-05-07 20:34
Airport Sydney Kingsford Smith International Airport (YSSY)
Time Latitude Longitude Altitude Speed Heading
2026-05-07 08:11 35.54764 139.76897 28 ft 0 kts 239°
2026-05-07 11:22 35.54764 139.76898 28 ft 2 kts 239°
2026-05-07 11:22 35.54777 139.76925 27 ft 4 kts 239°
2026-05-07 11:23 35.54792 139.76953 27 ft 4 kts 232°
2026-05-07 11:23 35.54803 139.76978 27 ft 3 kts 276°
2026-05-07 11:23 35.54797 139.77004 24 ft 4 kts 319°
2026-05-07 11:23 35.54775 139.77017 26 ft 4 kts 326°
2026-05-07 11:24 35.54755 139.77039 26 ft 4 kts 316°
2026-05-07 11:24 35.54736 139.77062 25 ft 4 kts 314°
2026-05-07 11:24 35.54726 139.77075 27 ft 1 kts 311°
2026-05-07 11:24 35.54725 139.77076 27 ft 0 kts 311°
2026-05-07 11:25 35.54725 139.77077 27 ft 0 kts 310°
2026-05-07 11:25 35.54715 139.77089 27 ft 2 kts 317°
2026-05-07 11:26 35.54705 139.77100 25 ft 2 kts 320°
2026-05-07 11:26 35.54694 139.77111 26 ft 1 kts 320°
2026-05-07 11:28 35.54706 139.77101 25 ft 3 kts 333°
2026-05-07 11:29 35.54735 139.77123 28 ft 9 kts 42°
2026-05-07 11:29 35.54784 139.77203 28 ft 14 kts 60°
2026-05-07 11:29 35.54850 139.77310 28 ft 17 kts 22°
2026-05-07 11:29 35.54967 139.77255 28 ft 20 kts 328°
2026-05-07 11:30 35.55097 139.77160 28 ft 23 kts 330°
2026-05-07 11:30 35.55241 139.77060 28 ft 20 kts 330°
2026-05-07 11:30 35.55358 139.76976 28 ft 20 kts 329°
2026-05-07 11:30 35.55452 139.76912 27 ft 16 kts 341°
2026-05-07 11:31 35.55564 139.76947 27 ft 18 kts 34°
2026-05-07 11:31 35.55667 139.77049 28 ft 20 kts 37°
2026-05-07 11:31 35.55783 139.77152 29 ft 22 kts 34°
2026-05-07 11:31 35.55899 139.77250 28 ft 15 kts 35°
2026-05-07 11:32 35.56021 139.77486 28 ft 19 kts 60°
2026-05-07 11:32 35.56090 139.77634 28 ft 21 kts 60°
2026-05-07 11:32 35.56169 139.77798 28 ft 23 kts 59°
2026-05-07 11:33 35.56255 139.77979 28 ft 26 kts 60°
2026-05-07 11:33 35.56349 139.78176 28 ft 28 kts 60°
2026-05-07 11:33 35.56429 139.78345 28 ft 9 kts 59°
2026-05-07 11:33 35.56461 139.78412 28 ft 10 kts 59°
2026-05-07 11:34 35.56502 139.78499 28 ft 13 kts 59°
2026-05-07 11:34 35.56547 139.78591 28 ft 13 kts 59°
2026-05-07 11:34 35.56565 139.78652 28 ft 7 kts 97°
2026-05-07 11:34 35.56530 139.78701 28 ft 10 kts 147°
2026-05-07 11:35 35.56392 139.78798 28 ft 45 kts 150°
2026-05-07 11:35 35.55866 139.79168 29 ft 128 kts 150°
2026-05-07 11:35 35.54872 139.79863 38 ft 195 kts 150°
2026-05-07 11:35 35.53665 139.80748 627 ft 204 kts 152°
2026-05-07 11:36 35.52438 139.81638 1484 ft 203 kts 155°
2026-05-07 11:36 35.51197 139.82503 2094 ft 215 kts 155°
2026-05-07 11:36 35.49827 139.83451 2316 ft 239 kts 156°
2026-05-07 11:36 35.48344 139.84492 2863 ft 252 kts 155°
2026-05-07 11:37 35.46768 139.85604 3525 ft 263 kts 155°
2026-05-07 11:37 35.45166 139.86647 4220 ft 263 kts 166°
2026-05-07 11:37 35.43390 139.86781 4881 ft 256 kts 198°
2026-05-07 11:37 35.41725 139.86035 5556 ft 258 kts 204°
2026-05-07 11:38 35.40032 139.85250 6285 ft 263 kts 203°
2026-05-07 11:38 35.38314 139.84461 7040 ft 264 kts 203°
2026-05-07 11:38 35.36584 139.83664 7819 ft 266 kts 204°
2026-05-07 11:38 35.34845 139.82859 8576 ft 268 kts 205°
2026-05-07 11:39 35.33146 139.81894 9327 ft 270 kts 211°
2026-05-07 11:39 35.31488 139.80794 10061 ft 272 kts 212°
2026-05-07 11:39 35.29811 139.79654 10573 ft 284 kts 212°
2026-05-07 11:39 35.28004 139.78426 10718 ft 308 kts 212°
2026-05-07 11:40 35.26702 139.77548 10859 ft 324 kts 212°
2026-05-07 11:40 35.24684 139.76197 11069 ft 344 kts 211°
2026-05-07 11:40 35.22544 139.74778 11626 ft 355 kts 211°
2026-05-07 11:40 35.20351 139.73335 12325 ft 360 kts 211°
2026-05-07 11:41 35.18133 139.71883 13133 ft 362 kts 211°
2026-05-07 11:41 35.15907 139.70428 13909 ft 365 kts 211°
2026-05-07 11:41 35.13652 139.68955 14508 ft 371 kts 211°
2026-05-07 11:41 35.11352 139.67454 15085 ft 378 kts 211°
2026-05-07 11:42 35.09017 139.65931 15686 ft 383 kts 211°
2026-05-07 11:42 35.06656 139.64391 16296 ft 388 kts 211°
2026-05-07 11:42 35.04250 139.62825 16890 ft 394 kts 211°
2026-05-07 11:42 35.01817 139.61241 17465 ft 399 kts 211°
2026-05-07 11:43 34.99355 139.59640 18091 ft 403 kts 210°
2026-05-07 11:43 34.96866 139.58022 18609 ft 408 kts 210°
2026-05-07 11:43 34.94356 139.56392 19158 ft 411 kts 210°
2026-05-07 11:43 34.91826 139.54750 19727 ft 413 kts 210°
2026-05-07 11:44 34.89279 139.53098 20282 ft 416 kts 210°
2026-05-07 11:44 34.86709 139.51431 20788 ft 421 kts 210°
2026-05-07 11:44 34.84112 139.49749 21275 ft 425 kts 210°
2026-05-07 11:44 34.81511 139.48064 21810 ft 428 kts 210°
2026-05-07 11:45 34.78875 139.46359 22358 ft 431 kts 210°
2026-05-07 11:45 34.76218 139.44641 22885 ft 434 kts 210°
2026-05-07 11:45 34.73481 139.43079 23290 ft 439 kts 201°
2026-05-07 11:45 34.70485 139.42198 23692 ft 446 kts 190°
2026-05-07 11:46 34.67376 139.41960 24177 ft 450 kts 181°
2026-05-07 11:46 34.64259 139.42359 24649 ft 452 kts 175°
2026-05-07 11:46 34.61136 139.42913 25079 ft 454 kts 175°
2026-05-07 11:46 34.58000 139.43473 25506 ft 456 kts 175°
2026-05-07 11:47 34.54852 139.44021 25943 ft 458 kts 175°
2026-05-07 11:47 34.51695 139.44554 26393 ft 459 kts 175°
2026-05-07 11:47 34.48529 139.45075 26813 ft 460 kts 175°
2026-05-07 11:47 34.45385 139.45585 27215 ft 462 kts 176°
2026-05-07 11:48 34.42148 139.46106 27611 ft 464 kts 176°
2026-05-07 11:48 34.38982 139.46615 27995 ft 466 kts 176°
2026-05-07 11:48 34.35761 139.47131 28350 ft 468 kts 175°
2026-05-07 11:48 34.32522 139.47652 28696 ft 470 kts 175°
2026-05-07 11:49 34.29269 139.48176 29018 ft 472 kts 175°
2026-05-07 11:49 34.26000 139.48703 29333 ft 474 kts 175°
2026-05-07 11:49 34.22724 139.49230 29665 ft 476 kts 175°
2026-05-07 11:49 34.19446 139.49756 30051 ft 475 kts 175°
2026-05-07 11:50 34.16177 139.50279 30443 ft 473 kts 175°
2026-05-07 11:50 34.12918 139.50799 30817 ft 472 kts 175°
2026-05-07 11:50 34.09669 139.51315 31138 ft 472 kts 175°
2026-05-07 11:50 34.06415 139.51832 31476 ft 471 kts 175°
2026-05-07 11:51 34.03165 139.52348 31801 ft 471 kts 175°
2026-05-07 11:51 33.99921 139.52863 32130 ft 469 kts 175°
2026-05-07 11:51 33.96680 139.53376 32387 ft 471 kts 175°
2026-05-07 11:51 33.93430 139.53891 32664 ft 471 kts 175°
2026-05-07 11:52 33.90184 139.54405 32904 ft 472 kts 175°
2026-05-07 11:52 33.83651 139.55438 32973 ft 473 kts 175°
2026-05-07 11:53 33.77110 139.56473 32973 ft 470 kts 175°
2026-05-07 11:53 33.70652 139.57492 32984 ft 472 kts 175°
2026-05-07 11:54 33.64119 139.58521 32986 ft 474 kts 175°
2026-05-07 11:54 33.57573 139.59550 32987 ft 475 kts 175°
2026-05-07 11:55 33.51022 139.60580 32989 ft 474 kts 175°
2026-05-07 11:55 33.44479 139.61606 32985 ft 474 kts 175°
2026-05-07 11:56 33.37954 139.62628 32989 ft 473 kts 175°
2026-05-07 11:56 33.31428 139.63648 32990 ft 472 kts 175°
2026-05-07 11:57 33.24912 139.64665 32990 ft 472 kts 175°
2026-05-07 11:57 33.18402 139.65680 32993 ft 472 kts 175°
2026-05-07 11:58 33.11885 139.66694 33005 ft 472 kts 175°
2026-05-07 11:58 33.05358 139.67709 33001 ft 473 kts 175°
2026-05-07 11:59 32.98817 139.68724 33003 ft 474 kts 175°
2026-05-07 11:59 32.92271 139.69738 33007 ft 475 kts 175°
2026-05-07 12:00 32.85717 139.70753 33012 ft 475 kts 175°
2026-05-07 12:00 32.79154 139.71767 33014 ft 476 kts 175°
2026-05-07 12:01 32.72583 139.72774 33021 ft 476 kts 175°
2026-05-07 12:01 32.66005 139.73766 33015 ft 477 kts 175°
2026-05-07 12:02 32.59417 139.74759 33012 ft 477 kts 175°
2026-05-07 12:02 32.52831 139.75753 33027 ft 477 kts 175°
2026-05-07 12:03 32.46239 139.76747 33014 ft 477 kts 175°
2026-05-07 12:03 32.39648 139.77744 33033 ft 477 kts 175°
2026-05-07 12:04 32.33054 139.78748 33033 ft 478 kts 175°
2026-05-07 12:04 32.26453 139.79753 33035 ft 479 kts 175°
2026-05-07 12:05 32.19881 139.80751 33032 ft 480 kts 175°
2026-05-07 12:05 32.13253 139.81756 33040 ft 480 kts 175°
2026-05-07 12:06 32.06578 139.82766 33036 ft 481 kts 175°
2026-05-07 12:06 31.99933 139.83770 33041 ft 481 kts 175°
2026-05-07 12:07 31.93290 139.84773 33041 ft 482 kts 175°
2026-05-07 12:07 31.86683 139.85768 33036 ft 482 kts 175°
2026-05-07 12:08 31.79993 139.86775 33046 ft 482 kts 175°
2026-05-07 12:08 31.73346 139.87773 33047 ft 482 kts 175°
2026-05-07 12:09 31.66692 139.88772 33051 ft 482 kts 175°
2026-05-07 12:09 31.60037 139.89769 33048 ft 482 kts 175°
2026-05-07 12:10 31.53436 139.90756 33049 ft 482 kts 175°
2026-05-07 12:10 31.46783 139.91750 33051 ft 482 kts 175°
2026-05-07 12:11 31.40134 139.92742 33052 ft 481 kts 175°
2026-05-07 12:11 31.33485 139.93732 33053 ft 481 kts 175°
2026-05-07 12:12 31.26839 139.94721 33046 ft 481 kts 175°
2026-05-07 12:12 31.20195 139.95708 33054 ft 481 kts 175°
2026-05-07 12:13 31.13560 139.96692 33055 ft 481 kts 175°
2026-05-07 12:13 31.06929 139.97675 33060 ft 480 kts 175°
2026-05-07 12:14 31.00319 139.98734 33056 ft 480 kts 172°
2026-05-07 12:14 30.93874 140.00830 33067 ft 481 kts 165°
2026-05-07 12:15 30.87494 140.03207 33062 ft 481 kts 165°
2026-05-07 12:15 30.81112 140.05545 33063 ft 480 kts 165°
2026-05-07 12:16 30.74725 140.07857 33069 ft 480 kts 166°
2026-05-07 12:16 30.68335 140.10161 33069 ft 481 kts 166°
2026-05-07 12:17 30.61948 140.12462 33070 ft 481 kts 166°
2026-05-07 12:17 30.55552 140.14764 33069 ft 481 kts 166°
2026-05-07 12:18 30.49155 140.17064 33073 ft 481 kts 166°
2026-05-07 12:18 30.42763 140.19359 33078 ft 481 kts 166°
2026-05-07 12:19 30.36401 140.21641 33075 ft 481 kts 166°
2026-05-07 12:19 30.30014 140.23928 33074 ft 480 kts 166°
2026-05-07 12:20 30.23621 140.26214 33076 ft 480 kts 166°
2026-05-07 12:20 30.17240 140.28493 33075 ft 480 kts 166°
2026-05-07 12:21 30.10848 140.30773 33081 ft 481 kts 166°
2026-05-07 12:21 30.04445 140.33025 33076 ft 480 kts 169°
2026-05-07 12:22 29.99000 140.33909 33080 ft 474 kts 181°
2026-05-07 12:22 29.92466 140.33378 33090 ft 470 kts 191°
2026-05-07 12:23 29.86007 140.32177 33083 ft 471 kts 192°
2026-05-07 12:23 29.79537 140.30992 33085 ft 471 kts 191°
2026-05-07 12:24 29.73050 140.29839 33086 ft 472 kts 191°
2026-05-07 12:24 29.66557 140.28701 33087 ft 472 kts 191°
2026-05-07 12:25 29.60072 140.27568 33086 ft 472 kts 191°
2026-05-07 12:25 29.53581 140.26434 33087 ft 471 kts 191°
2026-05-07 12:26 29.47090 140.25301 33091 ft 471 kts 191°
2026-05-07 12:26 29.40612 140.24171 33079 ft 471 kts 191°
2026-05-07 12:27 29.34124 140.23042 33088 ft 471 kts 191°
2026-05-07 12:27 29.27640 140.21914 33088 ft 471 kts 191°
2026-05-07 12:28 29.21151 140.20786 33088 ft 471 kts 191°
2026-05-07 12:28 29.14665 140.19662 33085 ft 472 kts 192°
2026-05-07 12:29 29.08165 140.18534 33090 ft 473 kts 192°
2026-05-07 12:29 29.01644 140.17406 33101 ft 475 kts 192°
2026-05-07 12:30 28.95097 140.16275 33109 ft 476 kts 192°
2026-05-07 12:30 28.88541 140.15144 33090 ft 477 kts 192°
2026-05-07 12:31 28.81978 140.14013 33092 ft 477 kts 192°
2026-05-07 12:31 28.75415 140.12883 33092 ft 477 kts 192°
2026-05-07 12:32 28.68865 140.11757 33084 ft 476 kts 193°
2026-05-07 12:32 28.62348 140.10638 33093 ft 476 kts 193°
2026-05-07 12:33 28.52475 140.08945 33096 ft 477 kts 193°
2026-05-07 12:33 28.45956 140.07829 33094 ft 477 kts 193°
2026-05-07 12:34 28.39344 140.06698 33097 ft 477 kts 193°
2026-05-07 12:34 28.32816 140.05584 33103 ft 478 kts 193°
2026-05-07 12:35 28.26238 140.04462 33100 ft 478 kts 193°
2026-05-07 12:35 28.19658 140.03341 33078 ft 478 kts 194°
2026-05-07 12:36 28.13079 140.02221 33095 ft 479 kts 194°
2026-05-07 12:36 28.06473 140.01099 33103 ft 480 kts 194°
2026-05-07 12:37 27.99839 140.00045 33100 ft 484 kts 190°
2026-05-07 12:37 27.93053 139.99912 33107 ft 489 kts 185°
2026-05-07 12:38 27.86237 139.99969 33103 ft 491 kts 185°
2026-05-07 12:38 27.79390 139.99998 33107 ft 492 kts 186°
2026-05-07 12:39 27.72524 140.00004 33072 ft 494 kts 186°
2026-05-07 12:39 27.65646 140.00001 33101 ft 495 kts 186°
2026-05-07 12:40 27.58750 139.99999 33103 ft 496 kts 186°
2026-05-07 12:40 27.51836 139.99998 33101 ft 497 kts 186°
2026-05-07 12:41 27.44928 139.99999 33093 ft 496 kts 186°
2026-05-07 12:41 27.38014 140.00000 33100 ft 496 kts 186°
2026-05-07 12:42 27.31112 140.00000 33099 ft 496 kts 186°
2026-05-07 12:42 27.24212 140.00000 33105 ft 496 kts 186°
2026-05-07 12:43 27.17319 140.00000 33104 ft 495 kts 186°
2026-05-07 12:43 27.10422 140.00000 33107 ft 495 kts 186°
2026-05-07 12:44 27.03537 140.00000 33084 ft 495 kts 186°
2026-05-07 12:44 26.96657 140.00001 33099 ft 494 kts 186°
2026-05-07 12:45 26.89784 140.00001 33104 ft 494 kts 186°
2026-05-07 12:45 26.82917 140.00000 33103 ft 493 kts 186°
2026-05-07 12:46 26.76053 140.00001 33097 ft 493 kts 185°
2026-05-07 12:46 26.69203 140.00001 33104 ft 492 kts 186°
2026-05-07 12:47 26.62350 140.00001 33103 ft 492 kts 185°
2026-05-07 12:47 26.55512 140.00000 33098 ft 491 kts 185°
2026-05-07 12:48 26.48690 140.00001 33098 ft 489 kts 185°
2026-05-07 12:48 26.41893 140.00002 33102 ft 488 kts 185°
2026-05-07 12:49 26.35110 140.00001 33086 ft 487 kts 185°
2026-05-07 12:49 26.28346 140.00001 33099 ft 486 kts 185°
2026-05-07 12:50 26.21591 140.00001 33103 ft 485 kts 185°
2026-05-07 12:50 26.14847 140.00001 33104 ft 485 kts 185°
2026-05-07 12:51 26.08104 140.00001 33096 ft 484 kts 184°
2026-05-07 12:51 26.01372 140.00001 33104 ft 484 kts 184°
2026-05-07 12:52 25.94645 140.00000 33096 ft 483 kts 184°
2026-05-07 12:52 25.87925 140.00000 33092 ft 483 kts 184°
2026-05-07 12:53 25.81205 140.00000 33103 ft 483 kts 184°
2026-05-07 12:53 25.74490 140.00000 33108 ft 483 kts 184°
2026-05-07 12:54 25.67771 140.00000 33103 ft 483 kts 184°
2026-05-07 12:54 25.61093 140.00000 33092 ft 483 kts 183°
2026-05-07 12:55 25.54320 140.00000 33106 ft 484 kts 183°
2026-05-07 12:55 25.47620 140.00000 33101 ft 485 kts 183°
2026-05-07 12:56 25.40865 140.00000 33103 ft 486 kts 183°
2026-05-07 12:56 25.34097 140.00000 33093 ft 487 kts 182°
2026-05-07 12:57 25.27313 140.00000 33099 ft 487 kts 182°
2026-05-07 12:57 25.20526 140.00000 33097 ft 487 kts 182°
2026-05-07 12:58 25.13746 140.00000 33089 ft 487 kts 182°
2026-05-07 12:58 25.06962 140.00000 33099 ft 486 kts 182°
2026-05-07 12:59 25.00199 140.00000 33096 ft 486 kts 182°
2026-05-07 12:59 24.93446 140.00000 33098 ft 485 kts 182°
2026-05-07 13:00 24.86696 140.00000 33101 ft 485 kts 182°
2026-05-07 13:00 24.79949 140.00000 33101 ft 485 kts 182°
2026-05-07 13:01 24.73204 140.00000 33097 ft 485 kts 182°
2026-05-07 13:01 24.66505 140.00000 33093 ft 484 kts 182°
2026-05-07 13:02 24.60864 140.00000 33095 ft 484 kts 182°
2026-05-07 13:02 24.53043 140.00000 33095 ft 483 kts 182°
2026-05-07 13:03 24.47410 140.00000 33095 ft 483 kts 182°
2026-05-07 13:03 24.40688 140.00000 33094 ft 482 kts 183°
2026-05-07 13:04 24.33984 140.00000 33094 ft 482 kts 183°
2026-05-07 13:04 24.27278 140.00000 33089 ft 481 kts 183°
2026-05-07 13:05 24.20588 140.00000 33090 ft 481 kts 183°
2026-05-07 13:05 24.13910 140.00000 33090 ft 480 kts 183°
2026-05-07 13:06 24.07277 140.00000 33089 ft 480 kts 183°
2026-05-07 13:06 24.00604 140.00000 33090 ft 479 kts 183°
2026-05-07 13:07 23.93925 140.00000 33082 ft 479 kts 182°
2026-05-07 13:07 23.87259 140.00000 33089 ft 479 kts 182°
2026-05-07 13:08 23.80596 140.00000 33089 ft 479 kts 182°
2026-05-07 13:08 23.73942 140.00000 33091 ft 479 kts 182°
2026-05-07 13:09 23.67317 140.00000 33083 ft 479 kts 182°
2026-05-07 13:09 23.60657 140.00000 33090 ft 478 kts 182°
2026-05-07 13:10 23.53995 140.00000 33086 ft 479 kts 182°
2026-05-07 13:10 23.47331 140.00000 33087 ft 479 kts 182°
2026-05-07 13:11 23.40665 140.00000 33081 ft 479 kts 182°
2026-05-07 13:11 23.33997 140.00000 33078 ft 479 kts 182°
2026-05-07 13:12 23.27327 140.00000 33084 ft 479 kts 182°
2026-05-07 13:12 23.20655 140.00000 33070 ft 479 kts 182°
2026-05-07 13:13 23.14026 140.00000 33085 ft 479 kts 182°
2026-05-07 13:13 23.07352 140.00000 33076 ft 480 kts 182°
2026-05-07 13:14 23.00683 140.00000 33068 ft 480 kts 182°
2026-05-07 13:14 22.93998 140.00000 33075 ft 480 kts 182°
2026-05-07 13:15 22.87320 140.00000 33075 ft 480 kts 182°
2026-05-07 13:15 22.80632 140.00000 33079 ft 480 kts 182°
2026-05-07 13:16 22.73993 140.00000 33075 ft 480 kts 182°
2026-05-07 13:16 22.67261 140.00000 33072 ft 481 kts 182°
2026-05-07 13:17 22.60614 140.00000 33075 ft 481 kts 182°
2026-05-07 13:17 22.53919 140.00000 33074 ft 481 kts 182°
2026-05-07 13:18 22.47212 140.00000 33075 ft 481 kts 182°
2026-05-07 13:18 22.40511 140.00000 33077 ft 481 kts 182°
2026-05-07 13:19 22.33811 140.00000 33069 ft 481 kts 182°
2026-05-07 13:19 22.27158 140.00000 33070 ft 481 kts 182°
2026-05-07 13:20 22.20461 140.00000 33060 ft 481 kts 182°
2026-05-07 13:20 22.13764 140.00000 33066 ft 481 kts 182°
2026-05-07 13:21 22.07064 140.00000 33070 ft 481 kts 182°
2026-05-07 13:21 22.00360 140.00000 33066 ft 482 kts 182°
2026-05-07 13:22 21.93652 140.00000 33063 ft 482 kts 182°
2026-05-07 13:22 21.86939 140.00000 33068 ft 482 kts 181°
2026-05-07 13:23 21.80220 140.00000 33064 ft 483 kts 181°
2026-05-07 13:23 21.73540 140.00000 33062 ft 483 kts 182°
2026-05-07 13:24 21.66812 140.00000 33059 ft 483 kts 181°
2026-05-07 13:24 21.60089 140.00000 33063 ft 484 kts 181°
2026-05-07 13:25 21.53350 140.00000 33063 ft 484 kts 181°
2026-05-07 13:25 21.46622 140.00000 33056 ft 484 kts 182°
2026-05-07 13:26 21.39880 140.00000 33058 ft 484 kts 181°
2026-05-07 13:26 21.33135 140.00000 33062 ft 484 kts 182°
2026-05-07 13:27 21.26403 139.99999 33062 ft 484 kts 182°
2026-05-07 13:27 21.19662 140.00000 33050 ft 484 kts 182°
2026-05-07 13:28 21.12961 140.00001 33054 ft 484 kts 181°
2026-05-07 13:28 21.06223 140.00000 33054 ft 484 kts 181°
2026-05-07 13:29 20.99480 140.00001 33057 ft 485 kts 182°
2026-05-07 13:29 20.92719 140.00000 33049 ft 485 kts 181°
2026-05-07 13:30 20.85963 140.00000 33053 ft 486 kts 181°
2026-05-07 13:30 20.79205 139.99999 33054 ft 486 kts 182°
2026-05-07 13:31 20.72432 140.00000 33048 ft 487 kts 181°
2026-05-07 13:31 20.65650 140.00000 33049 ft 487 kts 182°
2026-05-07 13:32 20.58868 139.99998 33052 ft 487 kts 182°
2026-05-07 13:32 20.52083 140.00001 33047 ft 488 kts 181°
2026-05-07 13:33 20.45296 140.00002 33055 ft 487 kts 182°
2026-05-07 13:33 20.38516 140.00001 33040 ft 488 kts 182°
2026-05-07 13:34 20.28321 139.99999 33043 ft 488 kts 182°
2026-05-07 13:35 20.21535 140.00000 33045 ft 488 kts 182°
2026-05-07 13:35 20.14729 140.00000 33032 ft 489 kts 181°
2026-05-07 13:36 20.07912 140.00001 33046 ft 490 kts 181°
2026-05-07 13:36 20.01081 140.00001 33044 ft 491 kts 182°
2026-05-07 13:37 19.94288 140.00000 33037 ft 492 kts 181°
2026-05-07 13:37 19.87400 139.99998 33038 ft 491 kts 182°
2026-05-07 13:38 19.80566 140.00003 33041 ft 492 kts 181°
2026-05-07 13:38 19.73768 140.00002 33035 ft 492 kts 181°
2026-05-07 13:39 19.66921 140.00000 33026 ft 492 kts 181°
2026-05-07 13:39 19.60073 139.99999 33035 ft 492 kts 181°
2026-05-07 13:40 19.53209 139.99993 33039 ft 493 kts 182°
2026-05-07 13:40 19.46345 140.00001 33036 ft 493 kts 181°
2026-05-07 13:41 19.39479 139.99994 33037 ft 493 kts 182°
2026-05-07 13:41 19.32595 139.99994 33015 ft 494 kts 181°
2026-05-07 13:42 19.25722 139.99999 33020 ft 494 kts 182°
2026-05-07 13:42 19.18842 140.00011 33021 ft 494 kts 181°
2026-05-07 13:43 19.11959 140.00004 33026 ft 495 kts 182°
2026-05-07 13:43 19.05116 140.00002 33025 ft 495 kts 182°
2026-05-07 13:44 18.98181 139.99984 33026 ft 495 kts 182°
2026-05-07 13:44 18.91327 139.99986 33017 ft 496 kts 182°
2026-05-07 13:45 18.84417 139.99997 33017 ft 496 kts 182°
2026-05-07 13:45 18.77517 140.00003 33022 ft 496 kts 182°
2026-05-07 13:46 18.70617 140.00003 33021 ft 496 kts 182°
2026-05-07 13:46 18.63715 139.99999 33018 ft 496 kts 182°
2026-05-07 13:47 18.56813 139.99999 33014 ft 496 kts 182°
2026-05-07 13:47 18.49910 139.99999 33015 ft 496 kts 182°
2026-05-07 13:48 18.43003 140.00000 33016 ft 496 kts 182°
2026-05-07 13:48 18.36095 140.00000 33005 ft 496 kts 182°
2026-05-07 13:49 18.29231 140.00000 33005 ft 496 kts 182°
2026-05-07 13:49 18.22322 140.00001 33010 ft 496 kts 182°
2026-05-07 13:50 18.15410 140.00001 33010 ft 497 kts 182°
2026-05-07 13:50 18.08496 140.00000 32999 ft 497 kts 182°
2026-05-07 13:51 18.01582 140.00000 33004 ft 497 kts 182°
2026-05-07 13:51 17.94668 140.00000 33003 ft 497 kts 182°
2026-05-07 13:52 17.87759 140.00000 33001 ft 497 kts 182°
2026-05-07 13:52 17.82001 140.00000 32997 ft 497 kts 182°
2026-05-07 13:53 17.75084 140.00000 32996 ft 497 kts 182°
2026-05-07 13:53 17.68169 140.00000 32997 ft 497 kts 182°
2026-05-07 13:54 17.61253 140.00000 32997 ft 497 kts 182°
2026-05-07 13:54 17.54346 139.99999 32988 ft 497 kts 182°
2026-05-07 13:55 17.47424 139.99999 32995 ft 497 kts 182°
2026-05-07 13:55 17.40503 140.00001 32991 ft 497 kts 182°
2026-05-07 13:56 17.33597 140.00001 32992 ft 497 kts 182°
2026-05-07 13:56 17.26684 140.00000 32992 ft 497 kts 182°
2026-05-07 13:57 17.19771 139.99997 32988 ft 497 kts 182°
2026-05-07 13:57 17.12903 139.99997 32989 ft 497 kts 182°
2026-05-07 13:58 17.05988 140.00001 32989 ft 497 kts 182°
2026-05-07 13:58 16.99066 139.99999 32985 ft 497 kts 183°
2026-05-07 13:59 16.92149 139.99999 32982 ft 497 kts 183°
2026-05-07 13:59 16.85229 140.00000 32981 ft 497 kts 183°
2026-05-07 14:00 16.78316 140.00000 32981 ft 497 kts 183°
2026-05-07 14:00 16.71386 140.00000 32980 ft 497 kts 183°
2026-05-07 14:01 16.64467 139.99999 32982 ft 498 kts 183°
2026-05-07 14:01 16.57536 139.99999 32974 ft 498 kts 183°
2026-05-07 14:02 16.50604 139.99999 32975 ft 498 kts 183°
2026-05-07 14:02 16.43672 139.99999 32971 ft 498 kts 183°
2026-05-07 14:03 16.36782 139.99999 32967 ft 498 kts 183°
2026-05-07 14:03 16.29843 139.99999 32968 ft 499 kts 183°
2026-05-07 14:04 16.22900 139.99999 32965 ft 499 kts 183°
2026-05-07 14:04 16.15955 139.99999 32968 ft 499 kts 183°
2026-05-07 14:05 16.09012 139.99999 32967 ft 499 kts 183°
2026-05-07 14:05 16.02051 139.99999 32964 ft 500 kts 183°
2026-05-07 14:06 15.95096 139.99999 32956 ft 500 kts 183°
2026-05-07 14:06 15.88138 140.00000 32960 ft 500 kts 183°
2026-05-07 14:07 15.81178 140.00000 32954 ft 500 kts 183°
2026-05-07 14:07 15.74215 140.00000 32957 ft 500 kts 183°
2026-05-07 14:08 15.67248 140.00000 32953 ft 501 kts 183°
2026-05-07 14:08 15.60281 140.00000 32957 ft 501 kts 183°
2026-05-07 14:09 15.53312 139.99999 32953 ft 501 kts 183°
2026-05-07 14:09 15.46344 139.99999 32951 ft 501 kts 183°
2026-05-07 14:10 15.39375 140.00000 32945 ft 501 kts 183°
2026-05-07 14:10 15.32407 139.99999 32952 ft 501 kts 182°
2026-05-07 14:11 15.25437 140.00000 32946 ft 501 kts 182°
2026-05-07 14:11 15.18504 139.99999 32942 ft 501 kts 182°
2026-05-07 14:12 15.11493 140.00000 32939 ft 501 kts 182°
2026-05-07 14:12 15.04564 140.00001 32941 ft 501 kts 183°
2026-05-07 14:13 14.97586 140.00000 32937 ft 502 kts 183°
2026-05-07 14:13 14.90603 139.99998 32938 ft 502 kts 182°
2026-05-07 14:14 14.83620 139.99998 32934 ft 502 kts 182°
2026-05-07 14:14 14.76635 140.00001 32937 ft 502 kts 182°
2026-05-07 14:15 14.69606 139.99999 32932 ft 502 kts 182°
2026-05-07 14:15 14.62679 139.99998 32932 ft 502 kts 182°
2026-05-07 14:16 14.55699 139.99999 32929 ft 501 kts 182°
2026-05-07 14:16 14.48717 140.00001 32927 ft 502 kts 182°
2026-05-07 14:17 14.41737 139.99998 32929 ft 501 kts 183°
2026-05-07 14:17 14.34757 139.99999 32926 ft 501 kts 182°
2026-05-07 14:18 14.27777 140.00000 32923 ft 501 kts 182°
2026-05-07 14:18 14.20799 139.99998 32917 ft 501 kts 182°
2026-05-07 14:19 14.13825 140.00000 32918 ft 501 kts 183°
2026-05-07 14:19 14.06855 140.00000 32919 ft 501 kts 182°
2026-05-07 14:20 13.99882 139.99997 32917 ft 500 kts 181°
2026-05-07 14:20 13.92924 140.00002 32911 ft 500 kts 182°
2026-05-07 14:21 13.85961 140.00002 32911 ft 500 kts 181°
2026-05-07 14:21 13.79000 140.00000 32914 ft 500 kts 183°
2026-05-07 14:22 13.72079 140.00001 32908 ft 501 kts 182°
2026-05-07 14:22 13.65113 139.99998 32906 ft 501 kts 181°
2026-05-07 14:23 13.58129 139.99998 32906 ft 501 kts 182°
2026-05-07 14:23 13.51151 139.99998 32910 ft 501 kts 182°
2026-05-07 14:24 13.44180 139.99999 32907 ft 501 kts 181°
2026-05-07 14:24 13.37200 140.00002 32898 ft 502 kts 182°
2026-05-07 14:25 13.30212 140.00000 32904 ft 501 kts 182°
2026-05-07 14:25 13.23278 140.00002 32905 ft 502 kts 182°
2026-05-07 14:26 13.16297 139.99999 32899 ft 502 kts 181°
2026-05-07 14:26 13.09303 140.00000 32897 ft 503 kts 182°
2026-05-07 14:27 13.02303 140.00000 32899 ft 503 kts 181°
2026-05-07 14:27 12.95304 140.00000 32891 ft 503 kts 181°
2026-05-07 14:28 12.88302 140.00001 32885 ft 503 kts 182°
2026-05-07 14:28 12.81301 140.00000 32887 ft 503 kts 182°
2026-05-07 14:29 12.74336 140.00000 32890 ft 503 kts 182°
2026-05-07 14:29 12.67325 139.99999 32885 ft 504 kts 181°
2026-05-07 14:30 12.60316 139.99999 32889 ft 504 kts 181°
2026-05-07 14:30 12.53309 139.99998 32889 ft 503 kts 181°
2026-05-07 14:31 12.46301 140.00001 32881 ft 504 kts 181°
2026-05-07 14:31 12.39292 140.00000 32886 ft 504 kts 181°
2026-05-07 14:32 12.32277 140.00000 32877 ft 504 kts 181°
2026-05-07 14:32 12.25259 139.99999 32876 ft 504 kts 181°
2026-05-07 14:33 12.18235 139.99999 32878 ft 504 kts 181°
2026-05-07 14:33 12.11273 140.00000 32878 ft 503 kts 181°
2026-05-07 14:34 12.04225 140.00000 32872 ft 503 kts 180°
2026-05-07 14:34 11.97287 140.00000 32872 ft 502 kts 181°
2026-05-07 14:35 11.90304 140.00000 32874 ft 503 kts 181°
2026-05-07 14:35 11.83310 140.00000 32868 ft 503 kts 181°
2026-05-07 14:36 11.76306 139.99999 32872 ft 502 kts 180°
2026-05-07 14:36 11.69315 140.00000 32860 ft 502 kts 181°
2026-05-07 14:37 11.62344 140.00000 32869 ft 502 kts 181°
2026-05-07 14:37 11.51857 139.99999 32863 ft 502 kts 180°
2026-05-07 14:38 11.44865 139.99999 32862 ft 502 kts 180°
2026-05-07 14:38 11.37876 139.99999 32862 ft 502 kts 180°
2026-05-07 14:39 11.30892 140.00000 32855 ft 502 kts 181°
2026-05-07 14:39 11.23916 140.00000 32854 ft 502 kts 180°
2026-05-07 14:40 11.16977 140.00000 32857 ft 502 kts 180°
2026-05-07 14:40 11.09981 140.00000 32852 ft 502 kts 180°
2026-05-07 14:41 11.02993 139.99999 32849 ft 502 kts 180°
2026-05-07 14:41 10.96006 140.00000 32842 ft 502 kts 180°
2026-05-07 14:42 10.90196 140.00000 32844 ft 502 kts 180°
2026-05-07 14:42 10.83204 140.00000 32850 ft 502 kts 180°
2026-05-07 14:43 10.75079 140.00000 32841 ft 502 kts 180°
2026-05-07 14:43 10.68089 140.00000 32841 ft 502 kts 180°
2026-05-07 14:44 10.62236 140.00000 32841 ft 501 kts 180°
2026-05-07 14:44 10.55256 140.00000 32842 ft 501 kts 180°
2026-05-07 14:45 10.48325 140.00000 32847 ft 501 kts 180°
2026-05-07 14:45 10.41349 140.00000 32838 ft 501 kts 180°
2026-05-07 14:46 10.34370 140.00000 32831 ft 501 kts 180°
2026-05-07 14:46 10.27399 140.00000 32834 ft 501 kts 180°
2026-05-07 14:47 10.20417 140.00000 32839 ft 501 kts 180°
2026-05-07 14:47 10.13448 140.00000 32828 ft 501 kts 180°
2026-05-07 14:48 10.06473 140.00000 32827 ft 501 kts 180°
2026-05-07 14:48 9.99498 140.00000 32829 ft 501 kts 180°
2026-05-07 14:49 9.92569 140.00000 32826 ft 501 kts 180°
2026-05-07 14:49 9.85601 140.00000 32826 ft 501 kts 180°
2026-05-07 14:50 9.78627 140.00000 32826 ft 501 kts 180°
2026-05-07 14:50 9.71654 140.00000 32824 ft 501 kts 179°
2026-05-07 14:51 9.64673 140.00000 32819 ft 501 kts 179°
2026-05-07 14:51 9.57698 140.00000 32817 ft 501 kts 180°
2026-05-07 14:52 9.50732 140.00000 32818 ft 501 kts 179°
2026-05-07 14:52 9.43758 140.00000 32821 ft 501 kts 179°
2026-05-07 14:53 9.36782 140.00000 32814 ft 501 kts 179°
2026-05-07 14:53 9.29806 140.00000 32818 ft 501 kts 179°
2026-05-07 14:54 9.22830 140.00000 32811 ft 501 kts 179°
2026-05-07 14:54 9.15900 140.00000 32810 ft 501 kts 179°
2026-05-07 14:55 9.08921 140.00000 32815 ft 501 kts 180°
2026-05-07 14:55 9.01948 140.00000 32809 ft 501 kts 179°
2026-05-07 14:56 8.94970 140.00000 32800 ft 501 kts 179°
2026-05-07 14:56 8.87993 140.00000 32805 ft 501 kts 179°
2026-05-07 14:57 8.81016 140.00000 32810 ft 501 kts 179°
2026-05-07 14:57 8.74040 140.00000 32802 ft 501 kts 179°
2026-05-07 14:58 8.67065 140.00000 32794 ft 501 kts 179°
2026-05-07 14:58 8.60085 140.00000 32802 ft 502 kts 179°
2026-05-07 14:59 8.53105 140.00000 32798 ft 502 kts 179°
2026-05-07 14:59 8.46113 140.00000 32800 ft 502 kts 179°
2026-05-07 15:00 8.39117 140.00000 32795 ft 503 kts 179°
2026-05-07 15:00 8.32152 140.00000 32816 ft 504 kts 179°
2026-05-07 15:01 8.25130 140.00000 32802 ft 505 kts 179°
2026-05-07 15:01 8.18106 140.00000 32793 ft 504 kts 179°
2026-05-07 15:02 8.11077 140.00000 32791 ft 505 kts 179°
2026-05-07 15:02 8.04068 140.00000 32797 ft 504 kts 179°
2026-05-07 15:03 7.97064 140.00000 32794 ft 503 kts 179°
2026-05-07 15:03 7.90057 140.00000 32789 ft 503 kts 179°
2026-05-07 15:04 7.83066 140.00000 32795 ft 503 kts 179°
2026-05-07 15:04 7.76069 140.00000 32793 ft 503 kts 179°
2026-05-07 15:05 7.69116 140.00000 32791 ft 503 kts 179°
2026-05-07 15:05 7.62113 140.00000 32796 ft 503 kts 179°
2026-05-07 15:06 7.55109 140.00000 32794 ft 503 kts 179°
2026-05-07 15:06 7.48106 140.00000 32796 ft 503 kts 179°
2026-05-07 15:07 7.41103 140.00000 32792 ft 503 kts 179°
2026-05-07 15:07 7.34103 140.00000 32797 ft 503 kts 179°
2026-05-07 15:08 7.27105 140.00000 32793 ft 502 kts 179°
2026-05-07 15:08 7.20123 140.00000 32792 ft 502 kts 179°
2026-05-07 15:09 7.13127 140.00000 32799 ft 502 kts 179°
2026-05-07 15:09 7.06150 140.00000 32790 ft 502 kts 179°
2026-05-07 15:10 6.99205 140.00000 32796 ft 502 kts 179°
2026-05-07 15:10 6.92219 140.00000 32800 ft 502 kts 179°
2026-05-07 15:11 6.85233 140.00000 32796 ft 502 kts 180°
2026-05-07 15:11 6.78247 140.00000 32797 ft 502 kts 179°
2026-05-07 15:12 6.71297 140.00000 32798 ft 502 kts 180°
2026-05-07 15:12 6.64310 140.00000 32801 ft 502 kts 180°
2026-05-07 15:13 6.57335 140.00000 32795 ft 502 kts 180°
2026-05-07 15:13 6.50355 140.00000 32796 ft 501 kts 180°
2026-05-07 15:14 6.43379 140.00000 32796 ft 501 kts 180°
2026-05-07 15:14 6.36402 140.00000 32797 ft 501 kts 180°
2026-05-07 15:15 6.29421 140.00000 32800 ft 502 kts 180°
2026-05-07 15:15 6.22438 140.00000 32801 ft 502 kts 180°
2026-05-07 15:16 6.15450 140.00000 32805 ft 502 kts 180°
2026-05-07 15:16 6.08501 140.00000 32804 ft 502 kts 180°
2026-05-07 15:17 6.01476 140.00000 32802 ft 502 kts 180°
2026-05-07 15:17 5.94520 140.00000 33038 ft 504 kts 180°
2026-05-07 15:18 5.91023 140.00000 33480 ft 500 kts 180°
2026-05-07 15:18 5.87553 140.00000 33916 ft 497 kts 180°
2026-05-07 15:18 5.84098 140.00000 34167 ft 498 kts 180°
2026-05-07 15:18 5.80626 140.00000 34410 ft 498 kts 180°
2026-05-07 15:19 5.77171 140.00000 34689 ft 497 kts 180°
2026-05-07 15:19 5.73698 140.00000 34741 ft 499 kts 180°
2026-05-07 15:19 5.66803 140.00000 34802 ft 497 kts 180°
2026-05-07 15:20 5.59890 140.00000 34808 ft 496 kts 180°
2026-05-07 15:20 5.52995 140.00000 34812 ft 495 kts 180°
2026-05-07 15:21 5.46111 140.00000 34807 ft 495 kts 180°
2026-05-07 15:21 5.39210 140.00000 34809 ft 495 kts 180°
2026-05-07 15:22 5.32314 140.00000 34811 ft 495 kts 180°
2026-05-07 15:22 5.25460 140.00000 34806 ft 496 kts 180°
2026-05-07 15:23 5.18565 140.00000 34812 ft 496 kts 180°
2026-05-07 15:23 5.11656 140.00000 34805 ft 496 kts 180°
2026-05-07 15:24 5.04752 140.00027 34801 ft 494 kts 176°
2026-05-07 15:24 5.01367 140.00570 34803 ft 493 kts 163°
2026-05-07 15:24 4.98175 140.01794 34815 ft 492 kts 153°
2026-05-07 15:25 4.95263 140.03582 34810 ft 490 kts 141°
2026-05-07 15:25 4.92616 140.05736 34817 ft 490 kts 140°
2026-05-07 15:25 4.87350 140.10097 34811 ft 491 kts 140°
2026-05-07 15:26 4.82051 140.14435 34813 ft 492 kts 141°
2026-05-07 15:26 4.76715 140.18747 34819 ft 493 kts 141°
2026-05-07 15:27 4.71396 140.23023 34808 ft 494 kts 141°
2026-05-07 15:27 4.66039 140.27327 34825 ft 493 kts 140°
2026-05-07 15:28 4.60698 140.31621 34800 ft 491 kts 140°
2026-05-07 15:28 4.55384 140.35894 34812 ft 488 kts 140°
2026-05-07 15:29 4.50094 140.40147 34802 ft 487 kts 141°
2026-05-07 15:29 4.44816 140.44389 34812 ft 486 kts 140°
2026-05-07 15:30 4.39537 140.48631 34818 ft 487 kts 140°
2026-05-07 15:30 4.34254 140.52875 34817 ft 487 kts 140°
2026-05-07 15:31 4.28973 140.57118 34808 ft 487 kts 140°
2026-05-07 15:31 4.23733 140.61326 34815 ft 486 kts 140°
2026-05-07 15:32 4.18459 140.65562 34813 ft 485 kts 140°
2026-05-07 15:32 4.13189 140.69794 34817 ft 485 kts 140°
2026-05-07 15:33 4.07915 140.74026 34815 ft 486 kts 140°
2026-05-07 15:33 4.02635 140.78264 34817 ft 486 kts 140°
2026-05-07 15:34 3.97361 140.82496 34813 ft 486 kts 140°
2026-05-07 15:34 3.92112 140.86708 34821 ft 486 kts 140°
2026-05-07 15:35 3.86843 140.90936 34812 ft 485 kts 140°
2026-05-07 15:35 3.81569 140.95166 34812 ft 485 kts 140°
2026-05-07 15:36 3.76299 140.99392 34824 ft 486 kts 140°
2026-05-07 15:36 3.71019 141.03625 34824 ft 486 kts 140°
2026-05-07 15:37 3.65731 141.07864 34820 ft 487 kts 140°
2026-05-07 15:37 3.60440 141.12106 34811 ft 488 kts 140°
2026-05-07 15:38 3.56037 141.15633 34818 ft 487 kts 140°
2026-05-07 15:38 3.49887 141.20562 34816 ft 487 kts 140°
2026-05-07 15:39 3.45456 141.24114 34815 ft 488 kts 140°
2026-05-07 15:39 3.40189 141.28332 34822 ft 488 kts 140°
2026-05-07 15:40 3.34859 141.32602 34819 ft 488 kts 140°
2026-05-07 15:40 3.29551 141.36853 34820 ft 489 kts 140°
2026-05-07 15:41 3.24269 141.41082 34816 ft 490 kts 140°
2026-05-07 15:41 3.18944 141.45346 34821 ft 490 kts 140°
2026-05-07 15:42 3.13616 141.49610 34816 ft 490 kts 140°
2026-05-07 15:42 3.08283 141.53880 34815 ft 490 kts 140°
2026-05-07 15:43 3.02955 141.58144 34817 ft 490 kts 140°
2026-05-07 15:43 2.97630 141.62405 34819 ft 490 kts 140°
2026-05-07 15:44 2.92310 141.66662 34816 ft 489 kts 140°
2026-05-07 15:44 2.87000 141.70909 34820 ft 489 kts 140°
2026-05-07 15:45 2.81693 141.75156 34813 ft 488 kts 140°
2026-05-07 15:45 2.76392 141.79395 34827 ft 487 kts 140°
2026-05-07 15:46 2.68492 141.85712 34816 ft 487 kts 140°
2026-05-07 15:47 2.63205 141.89941 34823 ft 487 kts 140°
2026-05-07 15:47 2.57921 141.94163 34825 ft 487 kts 140°
2026-05-07 15:48 2.52620 141.98401 34825 ft 487 kts 140°
2026-05-07 15:48 2.47318 142.02639 34823 ft 488 kts 141°
2026-05-07 15:49 2.42005 142.06884 34827 ft 488 kts 140°
2026-05-07 15:49 2.36700 142.11126 34823 ft 488 kts 140°
2026-05-07 15:50 2.31397 142.15363 34824 ft 488 kts 140°
2026-05-07 15:50 2.26108 142.19589 34823 ft 487 kts 140°
2026-05-07 15:51 2.20820 142.23815 34819 ft 486 kts 140°
2026-05-07 15:51 2.15531 142.28039 34826 ft 486 kts 140°
2026-05-07 15:52 2.10247 142.32261 34823 ft 486 kts 140°
2026-05-07 15:52 2.04956 142.36486 34821 ft 487 kts 140°
2026-05-07 15:53 1.99657 142.40717 34833 ft 488 kts 140°
2026-05-07 15:53 1.94354 142.44952 34831 ft 488 kts 140°
2026-05-07 15:54 1.89055 142.49183 34828 ft 488 kts 140°
2026-05-07 15:54 1.83751 142.53416 34833 ft 487 kts 140°
2026-05-07 15:55 1.78488 142.57620 34826 ft 487 kts 140°
2026-05-07 15:55 1.73185 142.61853 34832 ft 487 kts 140°
2026-05-07 15:56 1.67890 142.66081 34830 ft 487 kts 140°
2026-05-07 15:56 1.62599 142.70302 34830 ft 487 kts 140°
2026-05-07 15:57 1.57303 142.74530 34831 ft 487 kts 140°
2026-05-07 15:57 1.52002 142.78761 34832 ft 488 kts 141°
2026-05-07 15:58 1.46699 142.82993 34835 ft 488 kts 140°
2026-05-07 15:58 1.41399 142.87222 34831 ft 487 kts 140°
2026-05-07 15:59 1.36108 142.91444 34824 ft 486 kts 141°
2026-05-07 15:59 1.30825 142.95660 34827 ft 486 kts 140°
2026-05-07 16:00 1.25551 142.99867 34834 ft 484 kts 140°
2026-05-07 16:00 1.20286 143.04068 34828 ft 484 kts 140°
2026-05-07 16:01 1.15053 143.08242 34836 ft 485 kts 140°
2026-05-07 16:01 1.09737 143.12483 34836 ft 487 kts 141°
2026-05-07 16:02 1.04438 143.16709 34839 ft 488 kts 140°
2026-05-07 16:02 0.99168 143.20915 34832 ft 489 kts 140°
2026-05-07 16:03 0.93835 143.25168 34839 ft 490 kts 140°
2026-05-07 16:03 0.88505 143.29419 34835 ft 491 kts 140°
2026-05-07 16:04 0.83167 143.33677 34840 ft 491 kts 140°
2026-05-07 16:04 0.77828 143.37934 34839 ft 491 kts 140°
2026-05-07 16:05 0.72485 143.42196 34835 ft 491 kts 140°
2026-05-07 16:05 0.67151 143.46449 34840 ft 490 kts 140°
2026-05-07 16:06 0.61858 143.50670 34830 ft 490 kts 140°
2026-05-07 16:06 0.56539 143.54912 34833 ft 490 kts 140°
2026-05-07 16:07 0.51216 143.59156 34838 ft 489 kts 140°
2026-05-07 16:07 0.45893 143.63401 34835 ft 489 kts 140°
2026-05-07 16:08 0.40570 143.67646 34837 ft 490 kts 140°
2026-05-07 16:08 0.35245 143.71893 34834 ft 490 kts 140°
2026-05-07 16:09 0.29917 143.76141 34833 ft 490 kts 140°
2026-05-07 16:09 0.24579 143.80398 34837 ft 491 kts 140°
2026-05-07 16:10 0.19247 143.84649 34838 ft 491 kts 140°
2026-05-07 16:10 0.13904 143.88910 34837 ft 492 kts 140°
2026-05-07 16:11 0.08580 143.93157 34837 ft 492 kts 140°
2026-05-07 16:11 0.03199 143.97365 34829 ft 491 kts 146°
2026-05-07 16:11 0.00176 143.98961 34830 ft 493 kts 158°
2026-05-07 16:12 -0.03104 143.99974 34838 ft 495 kts 167°
2026-05-07 16:12 -0.09971 144.00502 34829 ft 497 kts 178°
2026-05-07 16:13 -0.16895 144.00632 34840 ft 498 kts 178°
2026-05-07 16:13 -0.23838 144.00799 34846 ft 500 kts 177°
2026-05-07 16:14 -0.30795 144.01014 34843 ft 500 kts 177°
2026-05-07 16:14 -0.37758 144.01247 34842 ft 501 kts 176°
2026-05-07 16:15 -0.44719 144.01483 34837 ft 500 kts 176°
2026-05-07 16:15 -0.51620 144.01714 34835 ft 500 kts 176°
2026-05-07 16:16 -0.58567 144.01944 34839 ft 499 kts 176°
2026-05-07 16:16 -0.65507 144.02175 34836 ft 499 kts 176°
2026-05-07 16:17 -0.72443 144.02405 34834 ft 499 kts 176°
2026-05-07 16:17 -0.79378 144.02635 34834 ft 499 kts 176°
2026-05-07 16:18 -0.86307 144.02865 34834 ft 499 kts 176°
2026-05-07 16:18 -0.93246 144.03096 34838 ft 499 kts 176°
2026-05-07 16:19 -1.00192 144.03326 34834 ft 500 kts 176°
2026-05-07 16:19 -1.07146 144.03557 34837 ft 500 kts 176°
2026-05-07 16:20 -1.14108 144.03789 34839 ft 501 kts 176°
2026-05-07 16:20 -1.21029 144.04019 34837 ft 501 kts 176°
2026-05-07 16:21 -1.28001 144.04250 34835 ft 501 kts 176°
2026-05-07 16:21 -1.34972 144.04482 34840 ft 502 kts 176°
2026-05-07 16:22 -1.41955 144.04714 34836 ft 502 kts 176°
2026-05-07 16:22 -1.48941 144.04946 34836 ft 502 kts 176°
2026-05-07 16:23 -1.55930 144.05178 34839 ft 502 kts 176°
2026-05-07 16:23 -1.62920 144.05410 34837 ft 503 kts 176°
2026-05-07 16:24 -1.69904 144.05642 34839 ft 503 kts 176°
2026-05-07 16:24 -1.76899 144.05875 34837 ft 503 kts 176°
2026-05-07 16:25 -1.83900 144.06107 34836 ft 503 kts 176°
2026-05-07 16:25 -1.90876 144.06339 34840 ft 503 kts 176°
2026-05-07 16:26 -1.97875 144.06572 34842 ft 503 kts 176°
2026-05-07 16:26 -2.04878 144.06804 34841 ft 503 kts 176°
2026-05-07 16:27 -2.11843 144.07036 34833 ft 504 kts 176°
2026-05-07 16:27 -2.18842 144.07269 34837 ft 504 kts 176°
2026-05-07 16:28 -2.25853 144.07502 34834 ft 504 kts 176°
2026-05-07 16:28 -2.32869 144.07735 34834 ft 504 kts 176°
2026-05-07 16:29 -2.39889 144.07969 34836 ft 505 kts 176°
2026-05-07 16:29 -2.46912 144.08202 34839 ft 505 kts 176°
2026-05-07 16:30 -2.52753 144.08396 34837 ft 505 kts 176°
2026-05-07 16:30 -2.59779 144.08630 34839 ft 505 kts 176°
2026-05-07 16:31 -2.66798 144.08864 34845 ft 505 kts 176°
2026-05-07 16:31 -2.73825 144.09098 34836 ft 505 kts 176°
2026-05-07 16:32 -2.80846 144.09331 34840 ft 505 kts 176°
2026-05-07 16:32 -2.87882 144.09565 34839 ft 505 kts 176°
2026-05-07 16:33 -2.94908 144.09799 34837 ft 505 kts 176°
2026-05-07 16:33 -3.01934 144.10033 34837 ft 505 kts 176°
2026-05-07 16:34 -3.08958 144.10267 34837 ft 505 kts 176°
2026-05-07 16:34 -3.15984 144.10501 34843 ft 505 kts 176°
2026-05-07 16:35 -3.23015 144.10735 34842 ft 506 kts 176°
2026-05-07 16:35 -3.30002 144.10968 34835 ft 506 kts 176°
2026-05-07 16:36 -3.37035 144.11202 34840 ft 505 kts 176°
2026-05-07 16:36 -3.43869 144.11430 34842 ft 505 kts 176°
2026-05-07 16:37 -3.50899 144.11664 34842 ft 505 kts 176°
2026-05-07 16:37 -3.57926 144.11898 34839 ft 505 kts 176°
2026-05-07 16:38 -3.64943 144.12132 34840 ft 505 kts 177°
2026-05-07 16:38 -3.71973 144.12366 34844 ft 505 kts 177°
2026-05-07 16:39 -3.78988 144.12600 34847 ft 505 kts 177°
2026-05-07 16:39 -3.86022 144.12835 34844 ft 505 kts 177°
2026-05-07 16:40 -3.93005 144.13068 34845 ft 505 kts 177°
2026-05-07 16:40 -4.00038 144.13302 34845 ft 506 kts 177°
2026-05-07 16:41 -4.07074 144.13537 34843 ft 506 kts 177°
2026-05-07 16:41 -4.14111 144.13772 34847 ft 506 kts 177°
2026-05-07 16:42 -4.21142 144.14007 34852 ft 506 kts 177°
2026-05-07 16:42 -4.28190 144.14242 34849 ft 506 kts 177°
2026-05-07 16:43 -4.35231 144.14477 34850 ft 506 kts 177°
2026-05-07 16:43 -4.42280 144.14712 34850 ft 506 kts 177°
2026-05-07 16:44 -4.49323 144.14948 34849 ft 506 kts 177°
2026-05-07 16:44 -4.56366 144.15183 34849 ft 506 kts 177°
2026-05-07 16:45 -4.63402 144.15418 34860 ft 506 kts 177°
2026-05-07 16:45 -4.70458 144.15654 34871 ft 507 kts 177°
2026-05-07 16:46 -4.77471 144.15889 34870 ft 507 kts 177°
2026-05-07 16:46 -4.84572 144.16126 34887 ft 508 kts 177°
2026-05-07 16:47 -4.91593 144.16361 34892 ft 508 kts 177°
2026-05-07 16:47 -4.98671 144.16597 34911 ft 509 kts 177°
2026-05-07 16:48 -5.05761 144.16834 34912 ft 510 kts 177°
2026-05-07 16:48 -5.12855 144.17072 34923 ft 510 kts 177°
2026-05-07 16:49 -5.19947 144.17310 34944 ft 509 kts 177°
2026-05-07 16:49 -5.27035 144.17547 34942 ft 510 kts 178°
2026-05-07 16:50 -5.34125 144.17784 34954 ft 509 kts 178°
2026-05-07 16:50 -5.41206 144.18021 34965 ft 509 kts 178°
2026-05-07 16:51 -5.48291 144.18258 34972 ft 509 kts 178°
2026-05-07 16:51 -5.55335 144.18494 34975 ft 509 kts 178°
2026-05-07 16:52 -5.62409 144.18732 34995 ft 509 kts 178°
2026-05-07 16:52 -5.69488 144.18969 35011 ft 509 kts 178°
2026-05-07 16:53 -5.76566 144.19207 35009 ft 509 kts 178°
2026-05-07 16:53 -5.83638 144.19444 35023 ft 508 kts 178°
2026-05-07 16:54 -5.90706 144.19681 35027 ft 508 kts 178°
2026-05-07 16:54 -5.97772 144.19918 35019 ft 508 kts 178°
2026-05-07 16:55 -6.04837 144.20155 35023 ft 508 kts 178°
2026-05-07 16:55 -6.11849 144.20391 35021 ft 508 kts 178°
2026-05-07 16:56 -6.18577 144.20617 35017 ft 508 kts 178°
2026-05-07 16:56 -6.29187 144.20974 35020 ft 509 kts 178°
2026-05-07 16:57 -6.36269 144.21211 35004 ft 509 kts 178°
2026-05-07 16:57 -6.43352 144.21449 34991 ft 509 kts 178°
2026-05-07 16:58 -6.50387 144.21686 34992 ft 509 kts 178°
2026-05-07 16:58 -6.57464 144.21921 34988 ft 509 kts 178°
2026-05-07 16:59 -6.64537 144.22162 34989 ft 508 kts 178°
2026-05-07 16:59 -6.71610 144.22401 34969 ft 508 kts 178°
2026-05-07 17:00 -6.78671 144.22638 34948 ft 508 kts 178°
2026-05-07 17:00 -6.85740 144.22876 34951 ft 508 kts 178°
2026-05-07 17:01 -6.92805 144.23114 34931 ft 508 kts 178°
2026-05-07 17:01 -6.99520 144.23340 34936 ft 508 kts 178°
2026-05-07 17:02 -7.06581 144.23578 34913 ft 507 kts 178°
2026-05-07 17:02 -7.13640 144.23816 34914 ft 507 kts 178°
2026-05-07 17:03 -7.20653 144.24052 34905 ft 508 kts 178°
2026-05-07 17:03 -7.27719 144.24291 34899 ft 508 kts 178°
2026-05-07 17:04 -7.34789 144.24529 34898 ft 508 kts 178°
2026-05-07 17:04 -7.41860 144.24775 34901 ft 508 kts 177°
2026-05-07 17:05 -7.48881 144.25631 34905 ft 508 kts 171°
2026-05-07 17:05 -7.55856 144.26758 34892 ft 507 kts 171°
2026-05-07 17:06 -7.62830 144.27876 34893 ft 507 kts 171°
2026-05-07 17:06 -7.69805 144.28964 34893 ft 507 kts 171°
2026-05-07 17:07 -7.76735 144.30032 34892 ft 507 kts 171°
2026-05-07 17:07 -7.83758 144.31112 34893 ft 507 kts 171°
2026-05-07 17:08 -7.90693 144.32180 34891 ft 507 kts 171°
2026-05-07 17:08 -7.96647 144.33099 34891 ft 507 kts 171°
2026-05-07 17:09 -8.03009 144.34082 34889 ft 508 kts 172°
2026-05-07 17:09 -8.09581 144.35097 34892 ft 508 kts 172°
2026-05-07 17:10 -8.16216 144.36122 34889 ft 509 kts 172°
2026-05-07 17:10 -8.22912 144.37157 34888 ft 510 kts 172°
2026-05-07 17:11 -8.29795 144.38221 34891 ft 510 kts 172°
2026-05-07 17:11 -8.36737 144.39295 34889 ft 510 kts 172°
2026-05-07 17:12 -8.43664 144.40366 34891 ft 511 kts 172°
2026-05-07 17:12 -8.49790 144.41314 34890 ft 511 kts 172°
2026-05-07 17:13 -8.56623 144.42372 34891 ft 511 kts 172°
2026-05-07 17:13 -8.63636 144.43458 34893 ft 511 kts 172°
2026-05-07 17:14 -8.70613 144.44539 34887 ft 511 kts 172°
2026-05-07 17:14 -8.77636 144.45628 34887 ft 510 kts 172°
2026-05-07 17:15 -8.84653 144.46716 34887 ft 510 kts 172°
2026-05-07 17:15 -8.90607 144.47639 34893 ft 510 kts 172°
2026-05-07 17:16 -8.97640 144.48731 34892 ft 509 kts 172°
2026-05-07 17:16 -9.04013 144.49720 34894 ft 509 kts 172°
2026-05-07 17:17 -9.10698 144.50758 34893 ft 509 kts 172°
2026-05-07 17:17 -9.17706 144.51846 34893 ft 509 kts 172°
2026-05-07 17:18 -9.24715 144.52935 34897 ft 509 kts 172°
2026-05-07 17:18 -9.31724 144.54025 34893 ft 509 kts 172°
2026-05-07 17:19 -9.37590 144.54938 34896 ft 509 kts 172°
2026-05-07 17:19 -9.44312 144.55983 34896 ft 509 kts 172°
2026-05-07 17:20 -9.51319 144.57074 34896 ft 509 kts 172°
2026-05-07 17:20 -9.58246 144.58152 34896 ft 509 kts 173°
2026-05-07 17:21 -9.65254 144.59244 34896 ft 509 kts 173°
2026-05-07 17:21 -9.72082 144.60308 34896 ft 509 kts 173°
2026-05-07 17:22 -9.78827 144.61360 34900 ft 509 kts 173°
2026-05-07 17:22 -9.85836 144.62453 34898 ft 510 kts 173°
2026-05-07 17:23 -9.92671 144.63519 34895 ft 510 kts 173°
2026-05-07 17:23 -9.98947 144.64499 34897 ft 510 kts 173°
2026-05-07 17:24 -10.05757 144.65562 34902 ft 511 kts 173°
2026-05-07 17:24 -10.12516 144.66618 34901 ft 511 kts 173°
2026-05-07 17:25 -10.19320 144.67682 34906 ft 511 kts 173°
2026-05-07 17:25 -10.26058 144.68735 34902 ft 511 kts 173°
2026-05-07 17:26 -10.32949 144.69813 34901 ft 511 kts 173°
2026-05-07 17:26 -10.39497 144.70838 34902 ft 511 kts 173°
2026-05-07 17:27 -10.46422 144.71922 34904 ft 511 kts 173°
2026-05-07 17:27 -10.53452 144.73023 34905 ft 511 kts 173°
2026-05-07 17:28 -10.60479 144.74124 34903 ft 511 kts 173°
2026-05-07 17:28 -10.67503 144.75225 34904 ft 510 kts 173°
2026-05-07 17:29 -10.74163 144.76270 34902 ft 510 kts 173°
2026-05-07 17:29 -10.81034 144.77348 34902 ft 510 kts 173°
2026-05-07 17:30 -10.87874 144.78422 34906 ft 510 kts 173°
2026-05-07 17:30 -10.94890 144.79524 34907 ft 510 kts 173°
2026-05-07 17:31 -11.01859 144.80619 34906 ft 510 kts 173°
2026-05-07 17:31 -11.08914 144.81728 34903 ft 510 kts 173°
2026-05-07 17:32 -11.15829 144.82816 34907 ft 510 kts 173°
2026-05-07 17:32 -11.22733 144.83902 34907 ft 510 kts 173°
2026-05-07 17:33 -11.29516 144.84970 34907 ft 510 kts 173°
2026-05-07 17:33 -11.36532 144.86075 34906 ft 510 kts 173°
2026-05-07 17:34 -11.43283 144.87139 34910 ft 510 kts 174°
2026-05-07 17:34 -11.50300 144.88246 34910 ft 510 kts 174°
2026-05-07 17:35 -11.57260 144.89344 34908 ft 510 kts 174°
2026-05-07 17:35 -11.64275 144.90451 34909 ft 510 kts 174°
2026-05-07 17:36 -11.71073 144.91525 34907 ft 510 kts 174°
2026-05-07 17:36 -11.77820 144.92591 34912 ft 510 kts 174°
2026-05-07 17:37 -11.84290 144.93614 34910 ft 510 kts 174°
2026-05-07 17:37 -11.91231 144.94712 34909 ft 511 kts 174°
2026-05-07 17:38 -11.98195 144.95814 34912 ft 511 kts 174°
2026-05-07 17:38 -12.05125 144.96909 34913 ft 511 kts 174°
2026-05-07 17:39 -12.11539 144.97921 34916 ft 511 kts 174°
2026-05-07 17:39 -12.18502 144.99021 34915 ft 511 kts 174°
2026-05-07 17:40 -12.25356 145.00104 34912 ft 511 kts 174°
2026-05-07 17:40 -12.32214 145.01189 34918 ft 511 kts 174°
2026-05-07 17:41 -12.38952 145.02256 34912 ft 511 kts 174°
2026-05-07 17:41 -12.45921 145.03359 34916 ft 511 kts 174°
2026-05-07 17:42 -12.52738 145.04439 34913 ft 511 kts 174°
2026-05-07 17:42 -12.59716 145.05546 34915 ft 511 kts 174°
2026-05-07 17:43 -12.66186 145.06572 34915 ft 512 kts 174°
2026-05-07 17:43 -12.73167 145.07680 34918 ft 512 kts 174°
2026-05-07 17:44 -12.80190 145.08795 34916 ft 513 kts 174°
2026-05-07 17:44 -12.87243 145.09915 34918 ft 513 kts 174°
2026-05-07 17:45 -12.94298 145.11037 34927 ft 513 kts 174°
2026-05-07 17:45 -13.01350 145.12159 34919 ft 513 kts 174°
2026-05-07 17:46 -13.08413 145.13283 34918 ft 514 kts 174°
2026-05-07 17:46 -13.15476 145.14408 34922 ft 514 kts 174°
2026-05-07 17:47 -13.22459 145.15520 34922 ft 514 kts 174°
2026-05-07 17:47 -13.29211 145.16597 34924 ft 513 kts 175°
2026-05-07 17:48 -13.36205 145.17713 34924 ft 513 kts 175°
2026-05-07 17:48 -13.43177 145.18825 34926 ft 513 kts 175°
2026-05-07 17:49 -13.50182 145.19944 34925 ft 513 kts 175°
2026-05-07 17:49 -13.56690 145.20984 34933 ft 513 kts 175°
2026-05-07 17:50 -13.63728 145.22110 34925 ft 513 kts 175°
2026-05-07 17:50 -13.70622 145.23212 34922 ft 513 kts 175°
2026-05-07 17:51 -13.77626 145.24334 34926 ft 513 kts 175°
2026-05-07 17:51 -13.84485 145.25432 34929 ft 513 kts 175°
2026-05-07 17:52 -13.91294 145.26524 34926 ft 513 kts 175°
2026-05-07 17:52 -13.98351 145.27655 34925 ft 513 kts 175°
2026-05-07 17:53 -14.05418 145.28789 34928 ft 513 kts 175°
2026-05-07 17:53 -14.12471 145.29922 34925 ft 514 kts 175°
2026-05-07 17:54 -14.19395 145.31035 34935 ft 514 kts 175°
2026-05-07 17:54 -14.26300 145.32145 34931 ft 515 kts 175°
2026-05-07 17:55 -14.33137 145.33245 34932 ft 515 kts 175°
2026-05-07 17:55 -14.39626 145.34290 34933 ft 516 kts 175°
2026-05-07 17:56 -14.46708 145.35434 34945 ft 516 kts 175°
2026-05-07 17:56 -14.53112 145.36470 34943 ft 516 kts 175°
2026-05-07 17:57 -14.59004 145.37424 34935 ft 516 kts 175°
2026-05-07 17:57 -14.67179 145.38748 34939 ft 517 kts 175°
2026-05-07 17:58 -14.74228 145.39891 34940 ft 517 kts 175°
2026-05-07 17:58 -14.81333 145.41043 34944 ft 517 kts 175°
2026-05-07 17:59 -14.88448 145.42198 34948 ft 517 kts 175°
2026-05-07 17:59 -14.95554 145.43352 34934 ft 517 kts 175°
2026-05-07 18:00 -15.02650 145.44505 34953 ft 517 kts 175°
2026-05-07 18:00 -15.09762 145.45661 34952 ft 517 kts 175°
2026-05-07 18:01 -15.16866 145.46817 34957 ft 517 kts 175°
2026-05-07 18:01 -15.23969 145.47974 34949 ft 517 kts 175°
2026-05-07 18:02 -15.34623 145.49710 34952 ft 517 kts 175°
2026-05-07 18:03 -15.41598 145.50848 34948 ft 517 kts 176°
2026-05-07 18:03 -15.48606 145.51992 34966 ft 517 kts 176°
2026-05-07 18:04 -15.54974 145.53032 34955 ft 517 kts 176°
2026-05-07 18:04 -15.62082 145.54193 34954 ft 517 kts 176°
2026-05-07 18:05 -15.69193 145.55357 34966 ft 517 kts 176°
2026-05-07 18:05 -15.76313 145.56522 34965 ft 518 kts 176°
2026-05-07 18:06 -15.83440 145.57689 34963 ft 519 kts 176°
2026-05-07 18:06 -15.90572 145.58858 34968 ft 519 kts 176°
2026-05-07 18:07 -15.97699 145.60028 34980 ft 519 kts 176°
2026-05-07 18:07 -16.04841 145.61200 34974 ft 520 kts 176°
2026-05-07 18:08 -16.10783 145.62174 34979 ft 520 kts 176°
2026-05-07 18:08 -16.19097 145.63538 34979 ft 520 kts 176°
2026-05-07 18:09 -16.25089 145.64522 34980 ft 520 kts 176°
2026-05-07 18:09 -16.32233 145.65697 34987 ft 520 kts 177°
2026-05-07 18:10 -16.39389 145.66874 34986 ft 521 kts 177°
2026-05-07 18:10 -16.46506 145.68046 34981 ft 521 kts 177°
2026-05-07 18:11 -16.53654 145.69224 34979 ft 521 kts 177°
2026-05-07 18:11 -16.60851 145.70409 35190 ft 526 kts 177°
2026-05-07 18:11 -16.64460 145.71005 35521 ft 524 kts 177°
2026-05-07 18:12 -16.68055 145.71600 35913 ft 522 kts 177°
2026-05-07 18:12 -16.71628 145.72191 36312 ft 520 kts 177°
2026-05-07 18:12 -16.75190 145.72780 36667 ft 518 kts 177°
2026-05-07 18:12 -16.78746 145.73367 36930 ft 518 kts 177°
2026-05-07 18:13 -16.82296 145.74183 36981 ft 527 kts 169°
2026-05-07 18:13 -16.89129 145.77158 36967 ft 536 kts 155°
2026-05-07 18:14 -16.95375 145.81426 36974 ft 537 kts 150°
2026-05-07 18:14 -17.01531 145.85841 36974 ft 536 kts 150°
2026-05-07 18:15 -17.07716 145.90214 36970 ft 536 kts 150°
2026-05-07 18:15 -17.13911 145.94543 37005 ft 536 kts 150°
2026-05-07 18:16 -17.20130 145.98873 37035 ft 537 kts 151°
2026-05-07 18:16 -17.26356 146.03217 37006 ft 539 kts 151°
2026-05-07 18:17 -17.32553 146.07549 37009 ft 540 kts 150°
2026-05-07 18:17 -17.38803 146.11924 37006 ft 541 kts 150°
2026-05-07 18:18 -17.45063 146.16309 37010 ft 541 kts 150°
2026-05-07 18:18 -17.51335 146.20704 37004 ft 542 kts 150°
2026-05-07 18:19 -17.57596 146.25097 37007 ft 542 kts 151°
2026-05-07 18:19 -17.63869 146.29502 37008 ft 543 kts 151°
2026-05-07 18:20 -17.70141 146.33909 37002 ft 542 kts 150°
2026-05-07 18:20 -17.76366 146.38288 37007 ft 542 kts 150°
2026-05-07 18:21 -17.82627 146.42695 37009 ft 542 kts 150°
2026-05-07 18:21 -17.88884 146.47103 37018 ft 542 kts 151°
2026-05-07 18:22 -17.95147 146.51519 37009 ft 542 kts 151°
2026-05-07 18:22 -18.01412 146.55941 37012 ft 543 kts 151°
2026-05-07 18:23 -18.07681 146.60369 37013 ft 543 kts 151°
2026-05-07 18:23 -18.13953 146.64804 37011 ft 543 kts 151°
2026-05-07 18:24 -18.20228 146.69244 37012 ft 544 kts 151°
2026-05-07 18:24 -18.26504 146.73690 37015 ft 544 kts 151°
2026-05-07 18:25 -18.32819 146.77945 37011 ft 539 kts 158°
2026-05-07 18:25 -18.39622 146.81084 37021 ft 530 kts 167°
2026-05-07 18:26 -18.46682 146.83114 37024 ft 524 kts 173°
2026-05-07 18:26 -18.53767 146.84918 37024 ft 525 kts 173°
2026-05-07 18:27 -18.60875 146.86758 37018 ft 527 kts 173°
2026-05-07 18:27 -18.67992 146.88643 37017 ft 528 kts 173°
2026-05-07 18:28 -18.75118 146.90545 37019 ft 528 kts 173°
2026-05-07 18:28 -18.82252 146.92449 37037 ft 529 kts 173°
2026-05-07 18:29 -18.89346 146.94341 37025 ft 529 kts 173°
2026-05-07 18:29 -18.96492 146.96248 37021 ft 530 kts 173°
2026-05-07 18:30 -19.03630 146.98154 37025 ft 530 kts 173°
2026-05-07 18:30 -19.10774 147.00064 37025 ft 529 kts 173°
2026-05-07 18:31 -19.17921 147.01976 37028 ft 530 kts 173°
2026-05-07 18:31 -19.25073 147.03891 37048 ft 530 kts 173°
2026-05-07 18:32 -19.32252 147.05813 37029 ft 532 kts 173°
2026-05-07 18:32 -19.39419 147.07739 37034 ft 531 kts 173°
2026-05-07 18:33 -19.46537 147.09650 37043 ft 531 kts 173°
2026-05-07 18:33 -19.53697 147.11574 37043 ft 531 kts 173°
2026-05-07 18:34 -19.60861 147.13501 37046 ft 531 kts 173°
2026-05-07 18:34 -19.68021 147.15429 37044 ft 531 kts 173°
2026-05-07 18:35 -19.75180 147.17359 37058 ft 531 kts 173°
2026-05-07 18:35 -19.82347 147.19292 37049 ft 531 kts 173°
2026-05-07 18:36 -19.89519 147.21226 37055 ft 532 kts 173°
2026-05-07 18:36 -19.96696 147.23161 37062 ft 532 kts 173°
2026-05-07 18:37 -20.03876 147.25101 37070 ft 533 kts 173°
2026-05-07 18:37 -20.11060 147.27043 37063 ft 533 kts 173°
2026-05-07 18:38 -20.18267 147.28993 37062 ft 534 kts 173°
2026-05-07 18:38 -20.25423 147.30933 37063 ft 534 kts 173°
2026-05-07 18:39 -20.32622 147.32885 37100 ft 535 kts 174°
2026-05-07 18:39 -20.39843 147.34844 37078 ft 536 kts 174°
2026-05-07 18:40 -20.47073 147.36808 37079 ft 536 kts 174°
2026-05-07 18:40 -20.54297 147.38774 37068 ft 536 kts 173°
2026-05-07 18:41 -20.61532 147.40744 37085 ft 536 kts 174°
2026-05-07 18:41 -20.68752 147.42713 37087 ft 533 kts 174°
2026-05-07 18:42 -20.75949 147.44680 37093 ft 533 kts 174°
2026-05-07 18:42 -20.83139 147.46637 37102 ft 534 kts 174°
2026-05-07 18:43 -20.90310 147.48594 37090 ft 536 kts 174°
2026-05-07 18:43 -20.97547 147.50575 37094 ft 538 kts 174°
2026-05-07 18:44 -21.04805 147.52563 37102 ft 538 kts 174°
2026-05-07 18:44 -21.12066 147.54556 37110 ft 539 kts 174°
2026-05-07 18:45 -21.19323 147.56547 37120 ft 539 kts 174°
2026-05-07 18:45 -21.26597 147.58545 37105 ft 539 kts 174°
2026-05-07 18:46 -21.33853 147.60540 37118 ft 539 kts 174°
2026-05-07 18:46 -21.41113 147.62539 37109 ft 538 kts 174°
2026-05-07 18:47 -21.48366 147.64538 37110 ft 538 kts 174°
2026-05-07 18:47 -21.55614 147.66537 37124 ft 538 kts 174°
2026-05-07 18:48 -21.62863 147.68538 37118 ft 538 kts 174°
2026-05-07 18:48 -21.70063 147.70527 37124 ft 538 kts 174°
2026-05-07 18:49 -21.77312 147.72533 37127 ft 538 kts 174°
2026-05-07 18:49 -21.84564 147.74541 37140 ft 539 kts 174°
2026-05-07 18:50 -21.91819 147.76552 37138 ft 539 kts 174°
2026-05-07 18:50 -21.99088 147.78570 37124 ft 539 kts 174°
2026-05-07 18:51 -22.06356 147.80590 37132 ft 539 kts 174°
2026-05-07 18:51 -22.13625 147.82612 37147 ft 540 kts 175°
2026-05-07 18:52 -22.20903 147.84637 37137 ft 540 kts 175°
2026-05-07 18:52 -22.28186 147.86667 37141 ft 541 kts 175°
2026-05-07 18:53 -22.35471 147.88701 37141 ft 541 kts 174°
2026-05-07 18:53 -22.42708 147.90724 37163 ft 541 kts 175°
2026-05-07 18:54 -22.49991 147.92760 37157 ft 541 kts 175°
2026-05-07 18:54 -22.57286 147.94802 37156 ft 541 kts 175°
2026-05-07 18:55 -22.64570 147.96843 37158 ft 540 kts 175°
2026-05-07 18:55 -22.71850 147.98887 37178 ft 540 kts 175°
2026-05-07 18:56 -22.79132 148.00932 37162 ft 540 kts 175°
2026-05-07 18:56 -22.85893 148.02833 37161 ft 539 kts 175°
2026-05-07 18:57 -22.92796 148.04776 37165 ft 539 kts 175°
2026-05-07 18:57 -23.00049 148.06819 37207 ft 538 kts 175°
2026-05-07 18:58 -23.07315 148.08869 37179 ft 539 kts 175°
2026-05-07 18:58 -23.14561 148.10916 37162 ft 538 kts 175°
2026-05-07 18:59 -23.21811 148.12966 37176 ft 538 kts 175°
2026-05-07 18:59 -23.29017 148.15006 37205 ft 538 kts 175°
2026-05-07 19:00 -23.36268 148.17060 37173 ft 538 kts 175°
2026-05-07 19:00 -23.43519 148.19118 37176 ft 538 kts 175°
2026-05-07 19:01 -23.50760 148.21175 37179 ft 538 kts 175°
2026-05-07 19:01 -23.58008 148.23237 37216 ft 538 kts 176°
2026-05-07 19:02 -23.65259 148.25301 37189 ft 538 kts 176°
2026-05-07 19:02 -23.71283 148.27018 37184 ft 538 kts 176°
2026-05-07 19:03 -23.78522 148.29084 37184 ft 537 kts 176°
2026-05-07 19:03 -23.85498 148.31077 37185 ft 537 kts 176°
2026-05-07 19:04 -23.92372 148.33042 37197 ft 537 kts 176°
2026-05-07 19:04 -23.99078 148.34962 37197 ft 536 kts 176°
2026-05-07 19:05 -24.05873 148.36909 37202 ft 535 kts 176°
2026-05-07 19:05 -24.13033 148.38963 37205 ft 535 kts 176°
2026-05-07 19:06 -24.20242 148.41033 37209 ft 535 kts 176°
2026-05-07 19:06 -24.30998 148.44126 37215 ft 535 kts 176°
2026-05-07 19:07 -24.38202 148.46201 37214 ft 535 kts 175°
2026-05-07 19:07 -24.45410 148.48280 37255 ft 536 kts 175°
2026-05-07 19:08 -24.52624 148.50363 37227 ft 536 kts 175°
2026-05-07 19:08 -24.59836 148.52449 37225 ft 536 kts 175°
2026-05-07 19:09 -24.67043 148.54534 37228 ft 536 kts 175°
2026-05-07 19:09 -24.74137 148.56590 37267 ft 535 kts 175°
2026-05-07 19:10 -24.80572 148.58456 37235 ft 535 kts 175°
2026-05-07 19:10 -24.87773 148.60549 37232 ft 535 kts 175°
2026-05-07 19:11 -24.94951 148.62638 37245 ft 534 kts 175°
2026-05-07 19:11 -25.02136 148.64729 37240 ft 533 kts 175°
2026-05-07 19:12 -25.09311 148.66819 37256 ft 533 kts 175°
2026-05-07 19:12 -25.16484 148.68913 37256 ft 533 kts 175°
2026-05-07 19:13 -25.23643 148.71005 37262 ft 532 kts 175°
2026-05-07 19:13 -25.30806 148.73101 37268 ft 532 kts 175°
2026-05-07 19:14 -25.37824 148.75156 37275 ft 534 kts 175°
2026-05-07 19:14 -25.44956 148.77251 37279 ft 532 kts 175°
2026-05-07 19:15 -25.50875 148.78985 37286 ft 532 kts 175°
2026-05-07 19:15 -25.57779 148.81017 37284 ft 532 kts 175°
2026-05-07 19:16 -25.64938 148.83122 37285 ft 532 kts 175°
2026-05-07 19:16 -25.72088 148.85232 37284 ft 532 kts 175°
2026-05-07 19:17 -25.79171 148.87325 37301 ft 531 kts 175°
2026-05-07 19:17 -25.86319 148.89440 37289 ft 531 kts 175°
2026-05-07 19:18 -25.93507 148.91570 37294 ft 532 kts 175°
2026-05-07 19:18 -26.00656 148.93692 37292 ft 531 kts 175°
2026-05-07 19:19 -26.07761 148.95804 37288 ft 531 kts 175°
2026-05-07 19:19 -26.14901 148.97927 37292 ft 531 kts 175°
2026-05-07 19:20 -26.22044 149.00054 37294 ft 531 kts 175°
2026-05-07 19:20 -26.29187 149.02185 37288 ft 531 kts 175°
2026-05-07 19:21 -26.36322 149.04316 37300 ft 530 kts 175°
2026-05-07 19:21 -26.43183 149.06367 37293 ft 530 kts 175°
2026-05-07 19:22 -26.50180 149.08495 37296 ft 533 kts 174°
2026-05-07 19:22 -26.57017 149.10818 37291 ft 535 kts 173°
2026-05-07 19:23 -26.63447 149.13077 37293 ft 534 kts 173°
2026-05-07 19:23 -26.70532 149.15541 37295 ft 533 kts 173°
2026-05-07 19:24 -26.77634 149.17980 37299 ft 533 kts 173°
2026-05-07 19:24 -26.84493 149.20329 37292 ft 533 kts 173°
2026-05-07 19:25 -26.91399 149.22699 37295 ft 533 kts 173°
2026-05-07 19:25 -26.98480 149.25134 37301 ft 533 kts 173°
2026-05-07 19:26 -27.05569 149.27577 37287 ft 533 kts 173°
2026-05-07 19:26 -27.12662 149.30024 37297 ft 533 kts 173°
2026-05-07 19:27 -27.19632 149.32432 37290 ft 533 kts 173°
2026-05-07 19:27 -27.25631 149.34507 37297 ft 533 kts 173°
2026-05-07 19:28 -27.32634 149.36932 37317 ft 534 kts 173°
2026-05-07 19:28 -27.39734 149.39394 37296 ft 534 kts 173°
2026-05-07 19:29 -27.46829 149.41858 37288 ft 533 kts 173°
2026-05-07 19:29 -27.53919 149.44323 37295 ft 533 kts 173°
2026-05-07 19:30 -27.60240 149.46524 37328 ft 533 kts 173°
2026-05-07 19:30 -27.67318 149.48991 37295 ft 533 kts 173°
2026-05-07 19:31 -27.74397 149.51462 37287 ft 532 kts 173°
2026-05-07 19:31 -27.81466 149.53934 37293 ft 531 kts 173°
2026-05-07 19:32 -27.88526 149.56405 37328 ft 531 kts 173°
2026-05-07 19:32 -27.95590 149.58879 37296 ft 531 kts 173°
2026-05-07 19:33 -28.02650 149.61357 37296 ft 531 kts 173°
2026-05-07 19:33 -28.09658 149.63822 37292 ft 531 kts 173°
2026-05-07 19:34 -28.16600 149.66265 37330 ft 530 kts 173°
2026-05-07 19:34 -28.22609 149.68273 37322 ft 525 kts 176°
2026-05-07 19:35 -28.29683 149.70268 37316 ft 523 kts 178°
2026-05-07 19:35 -28.36760 149.72225 37289 ft 524 kts 177°
2026-05-07 19:36 -28.43787 149.74237 37325 ft 524 kts 176°
2026-05-07 19:36 -28.50865 149.76299 37296 ft 525 kts 176°
2026-05-07 19:37 -28.57942 149.78365 37291 ft 525 kts 176°
2026-05-07 19:37 -28.65016 149.80427 37294 ft 525 kts 176°
2026-05-07 19:38 -28.71954 149.82451 37320 ft 524 kts 176°
2026-05-07 19:38 -28.78555 149.84379 37300 ft 524 kts 176°
2026-05-07 19:39 -28.85479 149.86408 37287 ft 524 kts 176°
2026-05-07 19:39 -28.91348 149.88140 37285 ft 524 kts 176°
2026-05-07 19:40 -28.99593 149.90578 37319 ft 523 kts 176°
2026-05-07 19:40 -29.06641 149.92666 37292 ft 522 kts 176°
2026-05-07 19:41 -29.13667 149.94749 37288 ft 521 kts 176°
2026-05-07 19:41 -29.20688 149.96833 37290 ft 521 kts 176°
2026-05-07 19:42 -29.27695 149.98915 37307 ft 520 kts 176°
2026-05-07 19:42 -29.34698 150.01000 37293 ft 520 kts 176°
2026-05-07 19:43 -29.41645 150.03070 37283 ft 519 kts 176°
2026-05-07 19:43 -29.48629 150.05135 37289 ft 518 kts 176°
2026-05-07 19:44 -29.55611 150.07196 37296 ft 518 kts 175°
2026-05-07 19:44 -29.62601 150.09268 37290 ft 518 kts 175°
2026-05-07 19:45 -29.69570 150.11341 37286 ft 518 kts 175°
2026-05-07 19:45 -29.76549 150.13431 37284 ft 517 kts 175°
2026-05-07 19:46 -29.83508 150.15521 37285 ft 517 kts 175°
2026-05-07 19:46 -29.90481 150.17616 37299 ft 517 kts 176°
2026-05-07 19:47 -29.97442 150.19709 37282 ft 518 kts 175°
2026-05-07 19:47 -30.04420 150.21812 37284 ft 517 kts 175°
2026-05-07 19:48 -30.11386 150.23914 37294 ft 517 kts 175°
2026-05-07 19:48 -30.18344 150.26016 37287 ft 516 kts 175°
2026-05-07 19:49 -30.24113 150.27763 37290 ft 516 kts 175°
2026-05-07 19:49 -30.31054 150.29864 37289 ft 515 kts 175°
2026-05-07 19:50 -30.39098 150.32304 37295 ft 514 kts 175°
2026-05-07 19:50 -30.46014 150.34407 37287 ft 513 kts 175°
2026-05-07 19:51 -30.51801 150.36168 37284 ft 513 kts 175°
2026-05-07 19:51 -30.58694 150.38269 37293 ft 512 kts 175°
2026-05-07 19:52 -30.65575 150.40370 37308 ft 510 kts 175°
2026-05-07 19:52 -30.72436 150.42466 37302 ft 509 kts 175°
2026-05-07 19:53 -30.79274 150.44559 37299 ft 508 kts 175°
2026-05-07 19:53 -30.86111 150.46654 37349 ft 507 kts 175°
2026-05-07 19:54 -30.92936 150.48745 37293 ft 508 kts 174°
2026-05-07 19:54 -30.99763 150.50842 37290 ft 507 kts 174°
2026-05-07 19:55 -31.06584 150.52939 37279 ft 507 kts 174°
2026-05-07 19:55 -31.13411 150.55042 37316 ft 507 kts 174°
2026-05-07 19:56 -31.20240 150.57148 37288 ft 508 kts 174°
2026-05-07 19:56 -31.27022 150.59245 37280 ft 508 kts 174°
2026-05-07 19:57 -31.33862 150.61366 37274 ft 508 kts 174°
2026-05-07 19:57 -31.40732 150.63491 37306 ft 507 kts 174°
2026-05-07 19:58 -31.47559 150.65609 37287 ft 507 kts 174°
2026-05-07 19:58 -31.54378 150.67731 37277 ft 507 kts 174°
2026-05-07 19:59 -31.61148 150.69839 37281 ft 507 kts 174°
2026-05-07 19:59 -31.68004 150.71977 37286 ft 506 kts 174°
2026-05-07 20:00 -31.74770 150.74091 37270 ft 506 kts 173°
2026-05-07 20:00 -31.81566 150.76214 37280 ft 506 kts 174°
2026-05-07 20:01 -31.88357 150.78339 37283 ft 504 kts 174°
2026-05-07 20:01 -31.95138 150.80473 37270 ft 504 kts 174°
2026-05-07 20:02 -32.01903 150.82597 37262 ft 503 kts 174°
2026-05-07 20:02 -32.05308 150.83515 36793 ft 503 kts 179°
2026-05-07 20:02 -32.08770 150.84155 36008 ft 502 kts 180°
2026-05-07 20:03 -32.12208 150.84723 35174 ft 494 kts 180°
2026-05-07 20:03 -32.15580 150.85268 34365 ft 484 kts 179°
2026-05-07 20:03 -32.18879 150.85812 33696 ft 471 kts 179°
2026-05-07 20:03 -32.22072 150.86355 33080 ft 458 kts 179°
2026-05-07 20:04 -32.25196 150.86893 32530 ft 451 kts 179°
2026-05-07 20:04 -32.28294 150.87428 31986 ft 449 kts 179°
2026-05-07 20:04 -32.31373 150.87961 31458 ft 446 kts 179°
2026-05-07 20:04 -32.34428 150.88492 30930 ft 443 kts 179°
2026-05-07 20:05 -32.37473 150.89024 30394 ft 441 kts 179°
2026-05-07 20:05 -32.40503 150.89554 29787 ft 439 kts 179°
2026-05-07 20:05 -32.43522 150.90083 29190 ft 437 kts 179°
2026-05-07 20:05 -32.46514 150.90608 28635 ft 433 kts 179°
2026-05-07 20:06 -32.49491 150.91131 28078 ft 431 kts 179°
2026-05-07 20:06 -32.52442 150.91653 27518 ft 428 kts 179°
2026-05-07 20:06 -32.55375 150.92180 26972 ft 425 kts 179°
2026-05-07 20:06 -32.58294 150.92707 26430 ft 423 kts 180°
2026-05-07 20:07 -32.61193 150.93231 25880 ft 420 kts 180°
2026-05-07 20:07 -32.64084 150.93751 25347 ft 417 kts 180°
2026-05-07 20:07 -32.66951 150.94266 24788 ft 416 kts 180°
2026-05-07 20:07 -32.69813 150.94779 24171 ft 416 kts 180°
2026-05-07 20:08 -32.72673 150.95296 23583 ft 415 kts 179°
2026-05-07 20:08 -32.75520 150.95808 22959 ft 412 kts 179°
2026-05-07 20:08 -32.78327 150.96317 22364 ft 401 kts 179°
2026-05-07 20:08 -32.81038 150.96811 21855 ft 390 kts 179°
2026-05-07 20:09 -32.83717 150.97287 21343 ft 388 kts 179°
2026-05-07 20:09 -32.86378 150.97756 20804 ft 386 kts 179°
2026-05-07 20:09 -32.88995 150.98217 20293 ft 384 kts 178°
2026-05-07 20:10 -32.94290 150.99149 19254 ft 381 kts 178°
2026-05-07 20:10 -32.96875 150.99609 18731 ft 380 kts 178°
2026-05-07 20:10 -32.99488 151.00075 18155 ft 379 kts 177°
2026-05-07 20:10 -33.02088 151.00539 17593 ft 377 kts 177°
2026-05-07 20:11 -33.04663 151.01001 17034 ft 367 kts 177°
2026-05-07 20:11 -33.07136 151.01447 16519 ft 353 kts 178°
2026-05-07 20:11 -33.09551 151.01880 16050 ft 350 kts 178°
2026-05-07 20:11 -33.11969 151.02307 15563 ft 350 kts 178°
2026-05-07 20:12 -33.14370 151.02732 15080 ft 349 kts 178°
2026-05-07 20:12 -33.16772 151.03160 14604 ft 349 kts 178°
2026-05-07 20:12 -33.19173 151.03590 14112 ft 349 kts 178°
2026-05-07 20:12 -33.21571 151.04019 13562 ft 349 kts 178°
2026-05-07 20:13 -33.23967 151.04452 13033 ft 347 kts 177°
2026-05-07 20:13 -33.26347 151.04898 12551 ft 345 kts 177°
2026-05-07 20:13 -33.28709 151.05353 12054 ft 343 kts 176°
2026-05-07 20:13 -33.31065 151.05806 11582 ft 342 kts 176°
2026-05-07 20:14 -33.33411 151.06252 11092 ft 340 kts 176°
2026-05-07 20:14 -33.35738 151.06701 10745 ft 336 kts 176°
2026-05-07 20:14 -33.38016 151.07140 10603 ft 327 kts 176°
2026-05-07 20:14 -33.40236 151.07569 10469 ft 319 kts 176°
2026-05-07 20:15 -33.42404 151.07988 10350 ft 312 kts 176°
2026-05-07 20:15 -33.44535 151.08396 10137 ft 308 kts 176°
2026-05-07 20:15 -33.46619 151.08794 10086 ft 299 kts 177°
2026-05-07 20:15 -33.48645 151.09183 9989 ft 290 kts 177°
2026-05-07 20:16 -33.50601 151.09560 9955 ft 280 kts 177°
2026-05-07 20:16 -33.52503 151.09928 9903 ft 273 kts 177°
2026-05-07 20:16 -33.54354 151.10285 9843 ft 265 kts 177°
2026-05-07 20:16 -33.56154 151.10630 9739 ft 258 kts 177°
2026-05-07 20:17 -33.57906 151.10965 9602 ft 254 kts 177°
2026-05-07 20:17 -33.59654 151.11299 9272 ft 254 kts 177°
2026-05-07 20:17 -33.61377 151.11634 9105 ft 246 kts 177°
2026-05-07 20:17 -33.63043 151.11967 9029 ft 241 kts 176°
2026-05-07 20:18 -33.64710 151.12285 9032 ft 246 kts 176°
2026-05-07 20:18 -33.66436 151.12623 8691 ft 255 kts 176°
2026-05-07 20:18 -33.68144 151.12966 8569 ft 243 kts 176°
2026-05-07 20:18 -33.69807 151.13298 8295 ft 239 kts 176°
2026-05-07 20:19 -33.71424 151.13615 8140 ft 231 kts 176°
2026-05-07 20:19 -33.72985 151.13917 7987 ft 224 kts 176°
2026-05-07 20:19 -33.74491 151.14208 7860 ft 221 kts 176°
2026-05-07 20:19 -33.76015 151.14502 7746 ft 221 kts 175°
2026-05-07 20:20 -33.77534 151.14795 7631 ft 221 kts 175°
2026-05-07 20:20 -33.79047 151.15089 7524 ft 221 kts 175°
2026-05-07 20:20 -33.80563 151.15379 7395 ft 219 kts 177°
2026-05-07 20:20 -33.82039 151.15298 7272 ft 212 kts 193°
2026-05-07 20:21 -33.83494 151.14888 7170 ft 217 kts 196°
2026-05-07 20:21 -33.84967 151.14438 7052 ft 218 kts 196°
2026-05-07 20:21 -33.86435 151.13992 6914 ft 217 kts 195°
2026-05-07 20:21 -33.87894 151.13557 6795 ft 216 kts 195°
2026-05-07 20:22 -33.89350 151.13129 6670 ft 215 kts 195°
2026-05-07 20:22 -33.90799 151.12706 6554 ft 214 kts 195°
2026-05-07 20:22 -33.92250 151.12286 6413 ft 214 kts 195°
2026-05-07 20:22 -33.93690 151.11870 6300 ft 213 kts 194°
2026-05-07 20:23 -33.95136 151.11453 6174 ft 213 kts 194°
2026-05-07 20:23 -33.96576 151.11037 6053 ft 213 kts 194°
2026-05-07 20:23 -33.98018 151.10620 5926 ft 213 kts 194°
2026-05-07 20:23 -33.99455 151.10204 5794 ft 213 kts 195°
2026-05-07 20:24 -34.00903 151.09786 5676 ft 213 kts 194°
2026-05-07 20:24 -34.02338 151.09371 5541 ft 212 kts 194°
2026-05-07 20:24 -34.03768 151.08958 5435 ft 211 kts 195°
2026-05-07 20:24 -34.05199 151.08544 5316 ft 211 kts 194°
2026-05-07 20:25 -34.06629 151.08130 5197 ft 211 kts 194°
2026-05-07 20:25 -34.08066 151.07808 5049 ft 209 kts 182°
2026-05-07 20:25 -34.09504 151.08046 4970 ft 211 kts 172°
2026-05-07 20:25 -34.10947 151.08435 4836 ft 213 kts 172°
2026-05-07 20:26 -34.12396 151.08834 4711 ft 214 kts 172°
2026-05-07 20:26 -34.13849 151.09225 4576 ft 213 kts 172°
2026-05-07 20:26 -34.15296 151.09608 4452 ft 213 kts 172°
2026-05-07 20:26 -34.16742 151.09986 4332 ft 213 kts 172°
2026-05-07 20:27 -34.18190 151.10364 4201 ft 213 kts 172°
2026-05-07 20:27 -34.19636 151.10748 4074 ft 212 kts 169°
2026-05-07 20:27 -34.20925 151.11627 3929 ft 220 kts 141°
2026-05-07 20:27 -34.21771 151.13180 3818 ft 225 kts 117°
2026-05-07 20:28 -34.22001 151.15034 3698 ft 227 kts 92°
2026-05-07 20:28 -34.21607 151.16875 3544 ft 230 kts 63°
2026-05-07 20:28 -34.20647 151.18398 3450 ft 228 kts 52°
2026-05-07 20:28 -34.19639 151.19888 3299 ft 234 kts 53°
2026-05-07 20:29 -34.18599 151.21441 3174 ft 235 kts 52°
2026-05-07 20:29 -34.17387 151.22704 3062 ft 231 kts 22°
2026-05-07 20:29 -34.15845 151.22987 3023 ft 222 kts 351°
2026-05-07 20:29 -34.14313 151.22716 3014 ft 222 kts 344°
2026-05-07 20:30 -34.12826 151.22353 2997 ft 213 kts 342°
2026-05-07 20:30 -34.11418 151.21984 2990 ft 203 kts 342°
2026-05-07 20:30 -34.10047 151.21622 2845 ft 203 kts 341°
2026-05-07 20:30 -34.08677 151.21263 2561 ft 199 kts 341°
2026-05-07 20:31 -34.07338 151.20914 2288 ft 194 kts 341°
2026-05-07 20:31 -34.06059 151.20580 2041 ft 186 kts 340°
2026-05-07 20:31 -34.04824 151.20259 1780 ft 172 kts 339°
2026-05-07 20:31 -34.04068 151.20062 1658 ft 166 kts 338°
2026-05-07 20:32 -34.02957 151.19768 1457 ft 162 kts 338°
2026-05-07 20:32 -34.01844 151.19477 1202 ft 162 kts 339°
2026-05-07 20:32 -34.00484 151.19138 900 ft 142 kts 339°
2026-05-07 20:32 -33.99563 151.18888 694 ft 135 kts 341°
2026-05-07 20:33 -33.98660 151.18652 489 ft 128 kts 339°
2026-05-07 20:33 -33.98065 151.18478 383 ft 131 kts 340°
2026-05-07 20:33 -33.97195 151.18260 210 ft 132 kts 342°
2026-05-07 20:33 -33.96278 151.18029 51 ft 135 kts 343°
2026-05-07 20:34 -33.95426 151.17794 34 ft 112 kts 348°
2026-05-07 20:34 -33.94826 151.17644 34 ft 40 kts 348°
2026-05-07 20:34 -33.94620 151.17592 35 ft 22 kts 347°
2026-05-07 20:34 -33.94509 151.17530 35 ft 16 kts 326°
2026-05-07 20:35 -33.94424 151.17459 35 ft 14 kts 324°
2026-05-07 20:35 -33.94349 151.17381 34 ft 14 kts 317°
2026-05-07 20:35 -33.94271 151.17308 35 ft 14 kts 335°